GFSMA_500_spd_033.txt.gz
Wind_Speed
12 14 16 16 14 13 5 9 9 5 7 9 10 10 9 12 13 12 14 13 12 11 11 10 12 13 13 12 10 9 11 12 13 15 15 19 15 13 12 17 17 7 6
15 15 15 15 14 10 9 9 7 7 8 8 6 9 8 10 11 12 12 11 10 11 11 11 12 13 13 13 12 13 13 14 15 16 16 16 14 14 15 18 21 15 6
12 12 15 16 11 13 13 11 7 8 8 6 6 5 9 7 10 10 12 11 10 12 12 13 13 12 12 14 13 12 11 11 12 13 14 15 15 15 16 18 20 20 20
10 12 14 15 12 9 12 12 12 9 8 7 2 5 7 8 8 7 9 9 10 12 13 12 12 12 12 13 14 12 12 12 12 14 15 14 14 14 15 16 17 19 20
11 11 12 14 12 12 15 18 16 13 7 5 5 6 8 8 6 6 5 6 7 9 9 9 10 9 10 11 12 12 12 13 14 13 13 13 13 13 13 14 16 18 19
9 10 11 13 14 12 13 16 15 15 16 11 11 9 9 9 7 6 4 4 6 7 8 9 10 9 12 11 11 13 12 12 14 15 14 14 14 13 13 12 14 15 17
7 8 10 10 10 11 11 13 16 17 16 14 13 12 10 9 8 7 7 5 5 6 7 8 8 8 10 11 11 12 14 17 19 19 19 17 15 15 16 16 16 16 16
7 7 8 9 9 10 12 13 13 14 17 14 14 13 10 11 10 10 11 9 10 8 9 9 9 11 11 10 11 14 15 15 15 16 17 18 16 15 15 13 13 14 15
8 5 7 7 8 9 9 11 12 11 12 13 13 12 13 11 10 10 9 8 8 7 9 9 9 11 10 9 9 11 12 15 18 18 18 16 16 14 13 14 15 15 15
7 5 5 5 5 6 7 9 9 9 9 7 8 7 7 5 5 6 8 8 9 9 8 10 11 11 10 11 10 12 14 16 18 18 17 15 15 16 15 15 16 19 20
4 4 4 4 5 5 6 5 7 6 6 8 7 7 7 8 8 10 9 11 8 8 10 10 11 12 12 11 12 14 17 17 18 19 19 19 17 17 18 18 18 19 22
4 2 3 3 3 4 4 4 4 4 3 5 6 6 6 5 6 10 11 14 12 8 5 9 8 11 10 12 15 18 18 19 19 21 23 23 21 19 18 21 24 26 27
6 5 3 2 1 3 4 4 4 5 6 4 4 6 7 7 6 7 12 12 10 6 8 11 11 12 12 14 16 18 22 24 24 26 25 25 24 21 23 25 26 31 33
9 9 9 7 4 4 5 5 6 7 7 6 4 6 8 9 8 6 4 8 10 9 9 12 12 11 15 16 18 20 22 24 25 24 26 26 25 23 24 25 28 31 34
13 12 10 9 8 8 8 7 5 7 8 8 6 8 8 9 10 9 10 6 8 9 9 8 12 16 15 18 22 22 23 26 27 28 27 27 27 27 26 26 29 32 34
11 12 11 10 10 10 9 8 7 6 8 8 8 11 12 13 14 12 8 7 7 9 9 11 12 14 19 22 22 25 25 27 31 31 26 25 26 27 29 30 31 31 34
12 13 12 10 11 11 11 11 10 9 10 9 10 11 12 12 14 13 11 10 9 8 8 12 16 19 18 19 22 24 26 27 31 31 27 26 27 29 30 32 33 32 32
3 4 4 3 3 6 9 11 10 11 12 12 11 13 14 14 14 14 14 11 12 16 17 13 13 18 22 25 25 26 27 27 31 31 30 30 31 31 33 32 33 33 33
2 1 2 3 4 4 4 5 6 7 10 11 12 12 17 16 16 15 14 13 13 15 18 23 21 19 21 25 27 29 30 32 32 33 34 33 34 36 36 37 36 36 33
4 3 2 5 5 3 1 2 4 5 5 8 11 12 14 16 19 22 20 20 19 21 22 25 28 28 26 28 30 34 36 39 40 37 37 37 31 33 33 35 35 35 31
2 2 2 3 3 3 2 2 3 5 7 8 12 13 15 17 19 23 27 26 26 25 26 27 26 32 36 35 33 35 37 42 45 46 43 45 36 33 32 33 37 36 31
2 3 4 4 3 2 1 2 1 3 4 6 11 11 11 14 17 20 24 28 31 28 24 27 31 34 38 40 38 40 43 47 51 51 45 41 41 40 34 35 31 32 33
6 3 5 8 8 6 5 6 7 6 4 5 7 9 8 9 13 17 18 23 29 33 33 33 33 35 38 42 44 46 47 48 51 52 51 52 55 48 40 32 34 31 34
10 10 9 8 11 12 13 11 13 12 9 11 13 14 15 14 15 15 17 20 24 28 31 35 36 36 40 43 47 50 49 48 51 51 54 56 60 56 48 35 34 31 32
14 15 14 15 14 15 16 16 18 19 19 17 18 19 20 21 21 22 23 24 26 26 32 36 40 44 47 49 48 45 48 50 53 56 56 60 61 60 60 52 29 29 29
19 20 19 17 17 18 20 21 21 23 23 23 25 25 24 24 26 28 31 33 34 34 37 40 43 46 50 53 57 54 54 55 57 59 51 62 63 67 59 36 27 26 27

GFSMA_500_spd_036.txt.gz
Wind_Speed
12 12 12 11 11 11 8 7 7 7 9 6 4 8 10 12 10 12 13 14 13 13 13 15 16 15 14 13 10 9 8 10 12 13 14 13 12 11 13 15 17 15 5
13 13 12 11 12 12 9 7 7 7 5 9 6 5 8 10 9 11 11 13 13 13 14 14 15 14 12 10 9 9 10 12 13 13 14 14 14 14 15 17 18 18 9
12 12 11 10 12 13 12 8 6 7 7 7 8 6 8 8 9 11 12 14 14 13 12 13 13 12 11 10 10 10 10 11 12 12 12 13 14 15 16 18 21 23 24
12 12 12 11 13 15 15 12 8 8 7 10 10 6 7 8 7 9 10 11 12 11 10 11 10 11 10 10 12 12 11 10 11 11 12 11 12 13 15 16 17 18 20
10 12 12 12 12 14 16 14 13 9 7 10 11 9 7 7 6 6 7 7 7 8 9 9 10 9 10 11 10 10 11 14 15 14 13 13 13 12 12 12 13 15 17
10 11 12 13 14 15 16 15 16 16 15 13 12 9 9 8 5 7 6 6 6 8 10 9 11 11 10 10 10 13 15 15 14 14 14 12 12 12 11 13 14 14 15
9 10 10 12 13 14 13 15 16 14 16 13 12 12 12 11 9 8 8 8 9 10 9 10 12 10 9 10 10 9 12 15 18 16 13 12 12 12 12 12 12 13 13
8 8 9 9 11 14 13 14 13 14 16 16 12 15 13 13 12 11 10 10 10 9 9 11 11 8 7 7 8 12 16 17 17 18 17 14 12 10 9 10 12 14 14
6 6 7 8 10 12 12 12 12 11 11 12 13 11 11 11 11 8 7 8 9 8 9 9 8 8 8 7 9 13 16 16 16 15 14 15 15 14 14 14 12 11 12
5 5 5 7 7 8 9 10 11 13 13 11 11 10 9 9 7 6 8 8 8 5 8 7 8 9 10 9 12 15 15 17 19 20 17 15 13 12 11 12 14 16 17
6 4 4 6 6 6 7 7 9 9 9 9 8 9 8 7 8 9 12 11 7 8 11 9 10 11 12 14 14 16 18 18 22 23 23 20 17 13 12 14 15 17 19
6 5 3 3 5 5 5 6 6 5 5 5 7 9 10 9 6 10 14 15 10 10 12 12 10 10 13 15 16 19 19 18 19 21 23 22 19 17 18 18 18 20 23
5 5 3 1 2 4 5 6 5 4 3 4 4 6 8 9 8 7 10 13 13 11 11 11 10 10 13 13 15 18 19 19 20 21 21 21 22 22 22 22 23 25 26
9 7 4 4 5 5 5 5 6 6 3 3 7 6 6 6 9 9 8 8 11 12 11 11 12 14 15 16 18 19 20 22 23 23 21 20 21 24 26 26 27 28 29
11 9 7 7 8 9 9 7 6 7 7 6 7 9 8 6 8 6 5 6 8 10 11 13 14 15 16 18 20 22 23 25 26 27 27 27 28 29 29 30 31 30 31
12 11 11 11 11 12 11 8 7 8 8 8 9 12 12 13 13 12 9 6 7 9 10 11 15 17 19 20 22 23 24 26 27 27 26 26 27 28 29 28 27 27 29
14 14 15 16 14 11 11 10 9 10 10 9 10 13 13 13 14 16 16 12 9 9 13 14 14 15 19 21 23 24 25 28 29 31 33 32 34 34 32 31 32 31 28
8 7 8 10 11 11 10 11 11 11 10 10 9 10 12 11 14 15 17 19 17 15 13 12 16 18 17 21 24 25 25 27 32 37 38 41 42 41 30 31 33 32 29
6 6 9 11 9 9 8 7 6 5 6 6 6 7 11 9 10 14 17 18 18 19 21 20 17 18 18 22 25 27 29 31 35 38 41 40 40 42 44 41 39 34 31
9 10 10 9 9 7 5 4 5 5 4 5 6 3 5 9 11 12 13 15 18 18 20 23 24 23 26 29 29 27 30 33 36 40 45 47 46 42 43 45 36 34 31
7 8 9 9 8 9 8 7 5 5 7 9 7 5 5 5 7 11 15 16 18 19 21 22 24 28 31 33 33 34 35 38 41 43 42 45 47 46 45 45 52 38 31
6 7 10 11 10 10 10 7 6 5 8 5 4 2 3 5 7 8 13 17 18 18 18 21 23 25 29 32 35 35 37 39 40 45 44 48 48 57 49 50 49 54 40
9 8 8 11 12 11 11 9 9 9 9 8 7 6 5 7 10 13 17 20 21 22 24 27 25 25 30 34 40 40 39 41 41 41 44 45 52 55 59 53 50 47 44
10 10 8 9 13 14 15 14 14 9 10 12 12 13 12 13 14 15 19 22 26 25 28 31 34 34 35 36 39 44 46 50 47 45 44 47 51 54 57 56 49 37 36
14 12 11 12 14 17 20 20 19 18 16 16 16 17 17 18 19 22 23 25 26 25 30 36 41 41 45 43 41 46 49 56 54 51 52 56 52 56 54 56 62 35 30
17 16 15 16 16 18 24 23 23 24 22 22 22 21 23 24 25 27 30 33 33 31 37 40 42 44 46 46 48 51 50 53 58 55 54 57 60 60 56 56 58 36 27

GFSMA_500_spd_039.txt.gz
Wind_Speed
8 10 10 8 7 8 6 9 8 5 8 10 9 9 10 12 11 13 13 14 14 14 13 13 13 12 10 10 10 12 11 12 15 15 16 16 16 16 19 22 24 19 5
10 11 10 10 9 9 7 8 7 8 8 6 8 6 8 11 11 11 11 12 14 14 11 10 10 10 10 10 12 12 12 14 14 14 13 12 14 16 18 19 21 23 16
12 12 13 11 12 9 7 6 7 12 7 6 7 5 7 10 10 11 12 12 12 11 10 9 8 10 12 13 13 13 14 15 14 13 12 11 12 13 13 15 17 19 19
11 11 14 14 13 11 12 9 7 13 11 9 9 7 6 7 7 9 10 10 10 10 10 10 11 12 12 13 13 13 14 13 13 12 10 10 8 10 12 14 15 17 18
9 10 14 13 13 15 14 13 10 12 11 10 11 9 7 6 5 6 7 8 9 9 12 12 10 11 11 12 11 12 13 14 13 12 12 11 11 10 10 11 13 14 14
8 9 13 15 15 17 17 16 16 15 14 10 11 11 10 8 6 6 6 7 9 12 11 11 10 9 10 9 11 13 14 13 12 14 13 11 8 7 8 9 10 10 11
8 10 11 14 15 17 17 17 15 14 14 13 13 13 12 12 11 10 10 11 11 11 11 8 8 8 7 9 11 13 15 18 18 16 11 9 8 8 8 8 9 10 9
8 9 11 13 14 15 17 16 17 14 14 15 12 12 14 13 12 11 11 11 9 10 8 8 9 9 11 12 13 14 16 18 18 16 15 11 10 9 9 11 10 8 9
5 8 9 11 11 12 14 15 13 10 10 11 12 11 10 8 8 8 6 6 6 6 7 9 10 10 11 12 14 15 17 19 19 18 16 14 12 12 11 8 7 9 11
4 7 7 9 8 9 11 11 11 11 13 12 12 11 10 8 9 9 7 9 10 10 10 11 11 12 12 13 15 16 17 19 19 21 20 19 17 15 13 12 12 15 16
6 5 6 6 7 7 7 8 8 8 10 12 11 10 9 8 9 13 13 13 12 12 11 11 13 13 14 13 16 18 19 19 19 20 21 19 17 16 15 14 14 15 16
5 3 5 5 6 7 8 7 6 6 7 7 8 9 9 8 9 14 17 14 12 12 13 12 13 13 13 13 16 18 20 19 19 19 19 20 21 21 20 18 17 19 20
7 3 2 1 2 3 5 7 8 8 7 6 7 8 9 10 9 9 11 14 13 11 11 10 11 12 13 15 17 19 19 20 21 22 22 21 22 24 26 25 23 23 23
8 7 6 4 5 4 3 3 5 8 9 8 6 8 11 12 11 9 10 11 12 13 10 10 11 13 15 16 18 20 19 20 23 26 28 28 28 30 28 27 27 28 28
10 9 9 9 9 8 6 5 5 7 7 8 9 8 10 12 14 12 9 10 10 12 11 11 12 12 12 15 18 18 17 18 19 23 27 30 32 33 33 28 26 27 29
12 12 13 13 13 11 10 8 7 8 8 7 7 7 7 8 11 13 13 11 8 8 10 12 12 13 14 15 16 18 19 19 22 25 29 31 30 32 32 32 26 33 29
13 14 15 14 14 14 13 11 10 10 8 8 7 6 5 4 6 7 10 9 7 7 8 9 12 14 13 15 17 18 19 21 26 30 31 32 33 35 37 37 36 32 36
11 13 15 16 17 15 15 14 12 11 10 8 7 4 5 4 3 3 4 5 6 5 8 11 12 13 13 17 22 24 25 27 30 32 34 33 36 34 34 41 37 40 41
10 9 11 14 14 13 14 12 9 9 9 7 4 4 0 2 4 6 8 8 8 10 10 12 15 16 19 22 26 29 28 29 31 34 36 37 40 38 39 40 39 41 40
13 13 13 12 11 9 8 7 7 6 4 6 6 5 2 1 2 4 5 8 11 13 15 16 19 21 22 25 27 31 31 33 34 37 37 39 42 45 47 46 50 51 46
16 16 14 12 10 10 9 9 8 8 10 10 8 6 2 2 4 6 7 10 11 12 14 15 16 20 23 26 29 32 33 32 32 40 39 38 41 44 47 44 46 47 46
16 16 15 15 13 12 12 12 10 10 11 9 6 4 4 4 5 7 11 12 13 14 16 21 20 21 22 26 32 34 35 33 32 39 42 48 48 43 45 52 47 48 43
15 13 13 15 16 16 16 15 15 13 13 11 9 8 6 8 10 14 17 18 19 20 21 22 23 24 25 31 34 36 41 40 40 39 40 45 47 48 48 49 53 50 50
14 13 12 15 18 18 20 19 17 16 16 17 15 15 14 16 18 20 21 22 21 21 26 31 34 31 33 37 40 43 46 48 45 46 47 52 54 53 51 56 50 53 56
19 16 16 16 15 18 22 23 22 19 17 17 18 18 19 20 21 23 25 26 27 26 31 34 37 40 41 42 44 48 49 54 53 53 55 56 58 68 58 61 56 54 56
24 23 20 16 16 15 18 19 24 26 23 22 22 23 22 21 24 27 30 31 31 32 36 37 39 43 45 44 47 52 53 57 58 60 57 62 62 61 66 66 67 59 56

GFSMA_500_spd_042.txt.gz
Wind_Speed
7 8 11 12 10 8 7 7 9 10 8 10 13 13 13 13 14 13 13 14 14 14 14 13 13 13 13 12 13 13 14 15 15 14 13 14 14 15 18 21 23 15 10
8 9 12 12 10 7 9 8 9 10 11 10 11 12 11 12 13 12 13 12 12 13 12 12 13 14 14 15 15 15 15 15 14 12 11 11 12 13 14 17 17 17 16
10 12 14 13 13 10 9 8 8 10 11 10 9 11 10 10 11 12 12 10 10 13 13 13 14 15 15 15 14 13 14 15 15 12 11 10 10 11 11 14 16 17 17
11 13 14 15 15 13 9 10 8 9 10 10 10 10 8 8 10 10 10 10 11 12 13 13 13 14 12 13 14 16 16 14 13 13 11 10 10 8 9 10 12 13 12
12 12 12 16 17 16 14 12 9 10 10 10 11 10 8 7 8 7 8 9 12 12 12 12 11 10 11 14 14 16 15 15 13 11 10 9 8 8 9 10 10 10 10
13 12 14 15 17 18 19 16 15 12 12 10 12 10 8 8 7 6 7 10 12 12 10 11 11 11 14 15 17 17 16 16 14 11 9 8 7 8 8 8 8 9 9
13 14 13 14 17 17 17 17 16 13 13 12 13 13 13 13 11 11 11 12 11 11 10 11 11 11 13 16 17 18 20 20 19 16 11 9 7 6 7 8 11 9 7
12 13 14 14 14 15 15 16 16 14 12 14 15 14 13 13 13 12 11 11 9 8 10 11 12 12 15 16 16 16 16 16 16 17 16 13 12 11 11 8 7 6 7
10 11 10 10 13 12 15 15 14 13 11 11 12 11 10 10 9 7 6 6 7 9 12 13 14 15 15 17 17 16 16 17 17 18 16 14 12 10 9 6 8 8 9
8 9 9 10 9 10 11 13 14 14 11 12 12 11 12 13 11 10 11 11 12 14 14 16 16 16 16 17 18 17 17 17 17 18 18 19 18 15 11 8 6 8 10
8 7 8 8 7 8 8 9 10 10 11 12 12 13 13 13 14 14 13 12 12 12 13 13 14 16 16 17 18 18 19 20 21 21 21 21 21 19 19 18 16 15 15
9 8 7 6 6 8 9 10 10 9 8 9 11 11 11 12 15 17 15 12 10 11 11 10 11 12 13 13 15 16 18 20 20 20 19 18 22 19 18 17 19 20 21
10 8 6 4 2 4 6 8 9 10 9 7 10 11 11 10 10 13 15 13 13 11 10 9 9 10 11 12 13 13 14 16 19 22 22 22 26 27 25 22 17 18 20
11 10 6 2 2 2 3 4 5 6 8 9 9 12 11 9 9 11 12 13 13 13 10 8 8 10 11 12 14 14 13 13 17 21 23 24 25 28 27 25 23 24 29
12 10 7 6 6 5 3 4 5 4 5 7 7 9 11 11 11 12 12 11 10 9 9 8 9 9 10 12 14 14 12 17 18 21 22 24 28 27 28 27 26 27 33
13 11 10 9 9 8 7 7 7 6 4 4 5 5 6 12 14 13 12 10 8 7 8 8 9 11 13 16 19 19 19 20 23 25 27 28 29 31 31 32 23 30 36
14 12 13 13 12 11 10 11 9 7 4 2 1 1 3 6 10 11 10 9 8 9 9 11 10 10 11 13 16 17 19 21 25 29 33 33 33 32 33 35 35 31 32
15 15 14 14 15 13 14 12 11 10 7 6 4 3 5 6 7 7 6 5 5 5 6 7 8 10 13 15 17 18 20 22 26 26 31 33 36 38 42 37 37 35 34
17 15 13 15 16 14 14 12 11 11 10 7 6 7 7 8 7 5 4 3 3 4 6 8 11 11 13 16 19 23 27 28 28 27 29 34 38 38 38 39 41 39 38
17 15 14 14 13 11 11 10 12 11 8 7 8 8 8 4 2 3 2 3 4 5 5 6 8 13 17 20 20 23 26 31 31 34 33 37 35 41 44 46 48 50 48
19 18 16 14 12 12 12 11 11 10 10 11 11 8 6 5 4 2 2 0 2 5 8 10 12 14 17 21 25 27 26 28 30 34 37 38 41 42 47 51 56 55 46
22 21 17 15 15 15 14 13 12 11 12 12 10 8 7 7 6 6 7 7 9 11 12 14 13 14 18 22 27 31 33 36 36 37 40 38 45 45 48 54 57 63 58
22 20 18 16 17 18 17 17 15 12 13 12 10 8 9 10 11 13 13 14 14 17 19 21 20 21 23 29 32 35 39 41 40 42 44 41 44 46 49 52 59 66 65
22 19 17 17 19 19 18 19 18 15 14 14 13 13 13 16 18 20 21 19 18 20 24 27 29 28 30 33 37 42 43 45 40 41 45 48 46 48 51 51 55 62 65
23 19 17 16 15 17 19 21 21 17 18 18 18 17 17 20 22 23 22 22 23 26 30 34 36 38 40 43 45 46 46 46 46 45 48 51 50 54 52 50 53 57 60
25 23 20 19 18 17 16 17 18 19 20 21 22 21 22 24 26 28 27 27 28 32 34 36 39 41 42 44 45 50 51 51 54 53 48 58 58 57 50 50 53 55 57

GFSMA_500_spd_045.txt.gz
Wind_Speed
10 10 8 8 8 9 12 11 10 10 10 13 13 13 13 14 15 15 15 16 14 15 15 13 14 14 14 13 13 13 13 13 12 11 11 11 12 12 14 16 13 11 8
11 11 9 8 8 9 10 11 12 10 10 11 13 13 12 13 13 13 13 14 14 13 14 14 14 15 14 14 13 13 13 12 12 11 11 10 12 13 13 15 15 14 12
12 13 12 11 10 12 13 12 13 12 12 11 11 13 12 13 13 12 12 13 14 15 14 14 14 14 14 14 14 14 13 11 11 11 10 10 11 11 12 12 12 12 11
13 12 14 13 9 12 13 13 13 12 11 11 10 12 12 13 13 12 12 13 13 13 13 13 13 13 13 15 14 13 11 10 10 11 10 8 8 8 8 8 10 9 9
14 13 15 14 12 14 13 13 12 13 11 11 10 11 11 10 11 11 11 13 12 12 11 12 12 14 16 16 14 14 12 10 9 9 9 8 6 6 7 8 8 5 6
14 13 15 16 17 17 13 13 15 14 12 11 11 12 12 11 10 12 11 11 12 12 11 11 13 15 16 16 17 18 19 16 12 8 8 5 7 6 6 8 8 8 7
16 16 16 16 16 15 15 14 15 14 13 12 14 13 12 12 12 13 13 11 11 11 11 12 14 15 15 17 18 17 18 19 18 15 11 8 7 8 9 7 7 5 4
16 17 16 17 15 15 15 16 16 13 12 12 14 14 14 12 12 11 11 10 10 12 13 14 15 15 15 15 14 14 15 18 18 18 16 14 11 8 8 5 6 6 7
13 15 15 14 15 14 13 14 14 14 12 9 9 10 9 8 8 7 7 8 12 14 14 16 17 16 16 16 15 14 14 14 16 15 15 13 13 11 10 11 10 11 13
12 13 13 12 11 12 12 13 12 13 13 11 10 10 11 9 9 10 11 13 15 16 16 16 16 15 16 19 20 18 18 18 19 18 19 20 17 14 12 11 10 11 13
12 12 11 11 10 10 8 8 8 10 11 11 11 12 13 13 13 13 14 13 13 13 13 13 13 14 16 16 16 16 17 19 19 17 17 24 22 20 16 12 14 17 20
12 12 12 13 13 13 11 8 7 7 9 10 11 11 12 13 14 15 14 12 9 10 11 10 11 12 13 13 11 14 16 19 19 19 21 22 24 22 19 19 17 17 23
13 12 11 11 11 10 9 8 9 9 7 7 10 10 9 12 15 15 14 12 10 9 9 10 10 9 8 10 9 10 14 17 18 19 22 23 19 21 19 18 18 21 24
14 13 11 8 9 8 6 4 6 7 7 7 7 8 7 11 15 15 15 12 10 10 10 7 6 6 8 9 11 12 13 15 18 20 18 19 20 22 23 19 16 21 26
14 13 10 7 5 6 5 4 3 4 5 6 6 7 9 10 13 13 13 12 11 9 6 6 7 11 14 15 13 11 11 13 15 17 20 21 24 25 26 25 24 22 26
16 15 13 9 7 5 6 5 3 3 4 3 4 6 10 11 13 14 14 12 10 9 9 10 11 10 10 10 10 10 12 14 15 17 21 26 30 30 30 30 29 32 32
18 17 14 12 10 8 7 6 4 4 3 2 3 6 10 11 13 14 13 12 11 10 9 7 6 7 8 9 10 12 14 16 19 21 23 27 30 31 33 35 37 39 38
21 19 17 15 11 11 9 7 7 6 4 4 4 5 8 11 12 11 10 9 8 7 5 3 4 7 9 12 15 17 19 21 23 24 25 24 29 32 35 38 42 45 46
23 21 18 16 14 13 12 10 8 8 7 7 7 8 9 11 10 8 7 7 6 3 2 4 6 8 11 14 17 19 22 24 26 28 29 32 35 36 38 40 43 45 48
25 22 20 17 15 12 12 11 11 10 10 10 10 10 12 11 10 8 7 5 4 2 2 4 7 11 14 16 17 18 20 25 28 33 33 35 37 39 40 40 41 44 47
26 24 21 18 15 12 12 13 13 12 12 12 12 12 13 11 10 9 8 6 3 4 6 6 7 8 13 17 21 24 26 29 32 32 36 38 37 37 39 42 45 46 47
28 25 23 19 17 15 15 15 14 14 13 13 11 12 12 10 8 8 6 6 7 7 8 9 10 11 14 19 25 28 31 31 31 38 33 31 36 37 42 44 47 50 51
29 27 25 21 19 18 17 16 16 15 13 12 12 12 10 7 6 6 8 10 12 12 13 13 13 18 21 26 29 31 33 34 35 39 40 35 41 40 43 46 49 50 48
29 28 25 22 20 20 19 19 20 16 14 15 13 13 11 11 11 13 14 15 16 17 16 16 17 23 27 30 33 35 37 38 34 35 42 40 41 41 42 44 43 45 47
31 28 26 21 19 20 20 21 20 18 15 15 15 15 15 16 17 17 17 17 21 22 21 22 27 30 32 34 38 38 41 42 39 35 40 46 41 42 40 40 40 40 46
32 29 24 21 19 18 18 18 16 16 15 16 19 17 17 19 22 24 24 23 23 24 26 28 30 33 35 37 40 43 44 44 45 45 44 50 52 51 49 43 40 39 40

GFSMA_500_spd_048.txt.gz
Wind_Speed
9 9 6 8 9 9 9 10 11 12 13 15 16 15 15 16 16 14 15 13 12 13 14 13 12 12 11 10 10 9 9 10 10 10 10 12 15 16 19 17 14 9 6
10 8 7 7 9 10 10 10 10 10 13 14 15 15 15 14 14 13 13 12 12 14 15 13 12 11 10 10 10 10 11 10 10 11 12 13 14 13 14 15 13 11 10
11 10 8 6 9 9 10 9 10 10 12 13 14 14 14 14 13 12 12 13 14 15 16 14 13 12 12 11 9 9 10 12 12 12 12 11 12 11 11 9 8 9 10
12 12 12 10 11 10 10 12 11 10 11 12 13 14 14 13 12 12 13 13 12 13 12 13 13 13 13 13 12 10 9 10 10 10 10 10 9 10 9 10 10 11 9
16 15 14 13 14 13 12 13 12 12 12 11 12 12 12 12 12 12 12 12 12 12 12 13 13 14 14 17 18 17 14 12 10 9 9 9 9 9 9 11 10 9 8
18 17 17 15 14 12 12 13 12 12 13 11 11 11 11 11 11 12 13 12 11 11 12 13 13 14 16 18 21 20 19 18 13 11 11 11 11 9 9 10 10 9 10
17 19 19 17 15 14 12 11 11 12 13 11 11 10 11 12 12 12 11 10 10 11 12 13 15 16 18 17 18 19 18 19 18 16 12 10 9 11 10 8 7 8 11
18 18 19 17 15 14 12 11 11 12 12 10 10 10 10 12 11 10 9 8 11 13 14 14 16 15 15 14 12 12 12 13 14 14 14 12 10 8 8 8 9 12 14
17 17 18 17 16 14 13 11 11 11 11 9 7 7 7 8 8 6 5 9 13 14 15 16 15 14 13 12 11 11 11 13 15 15 16 14 12 11 10 10 11 14 19
15 14 14 14 14 12 11 11 10 9 8 8 7 7 6 5 5 6 10 13 14 14 15 15 15 15 17 16 17 16 14 14 13 16 19 17 15 14 12 12 15 17 23
14 14 13 12 11 11 10 8 9 8 6 7 9 9 7 9 9 11 13 13 13 12 12 13 12 13 13 13 15 16 16 15 18 21 21 19 20 18 17 17 15 20 23
14 13 13 12 11 10 9 8 8 7 8 9 10 10 9 8 9 11 10 11 10 11 10 10 9 8 10 10 11 14 15 17 18 20 22 18 22 20 19 20 20 23 28
13 14 13 12 10 11 11 10 8 6 7 8 8 9 10 9 9 10 9 8 8 8 7 8 6 6 7 8 9 9 13 15 17 19 22 22 21 23 24 23 23 26 28
14 13 12 10 9 8 7 8 7 8 7 6 5 6 8 11 11 11 9 8 7 6 7 3 3 5 8 10 9 10 10 11 12 14 18 19 22 21 22 23 23 25 24
16 15 13 10 8 7 5 5 6 6 6 5 5 5 7 10 12 12 10 8 8 6 4 5 9 11 11 9 7 7 9 12 13 16 17 20 23 25 27 29 30 33 35
18 16 15 12 8 7 6 4 5 6 5 5 5 7 9 10 11 12 11 10 8 6 8 9 9 8 7 7 7 8 10 12 14 16 19 21 25 28 29 32 34 35 36
19 17 16 13 11 9 8 8 7 7 7 6 5 8 11 11 12 13 13 11 9 9 9 8 5 4 7 8 8 8 11 14 16 18 20 22 25 28 30 32 34 36 38
21 20 18 16 14 12 12 11 10 9 8 8 7 9 13 14 14 15 15 13 11 9 7 3 3 5 7 8 10 13 16 17 20 22 25 28 31 31 32 33 34 36 39
24 23 21 18 17 16 15 14 13 10 10 10 9 10 14 15 15 15 14 12 10 8 5 2 1 4 6 7 10 11 14 18 23 26 26 30 35 36 34 36 38 39 41
26 25 24 21 18 17 16 14 14 13 13 12 10 12 14 17 15 14 12 10 7 5 2 3 7 9 10 12 14 15 18 22 23 27 29 32 34 33 36 41 42 43 44
27 27 27 23 19 17 15 15 16 14 14 13 11 11 15 16 15 14 10 8 5 3 5 6 8 8 12 14 15 18 20 23 25 29 28 31 32 35 38 37 41 47 48
30 29 28 25 21 19 17 18 16 15 14 13 12 12 14 14 14 12 8 6 5 6 8 8 8 7 10 13 16 20 22 26 27 32 31 30 35 36 38 37 40 42 44
33 31 30 27 24 21 19 18 18 16 14 14 11 12 14 12 10 9 7 5 7 8 9 10 9 11 14 19 21 22 26 27 30 32 32 31 36 37 40 40 39 39 42
33 33 31 29 27 23 21 20 18 17 16 13 12 12 12 11 10 9 8 6 6 9 14 16 17 14 17 21 23 25 27 27 30 34 38 33 36 38 43 41 40 39 40
33 32 31 30 26 25 21 20 19 17 17 15 14 14 15 14 13 13 11 10 12 14 18 20 21 21 23 27 30 29 33 34 33 37 41 43 41 43 43 42 40 40 44
33 33 32 30 27 24 21 19 17 17 18 17 17 16 14 14 15 17 17 19 19 21 22 24 25 25 27 29 34 34 36 38 41 35 41 44 44 49 47 37 41 45 46

GFSMA_500_spd_051.txt.gz
Wind_Speed
8 7 7 7 8 8 7 11 12 13 13 14 14 14 14 15 14 13 14 14 14 13 13 11 11 11 10 11 12 12 12 13 14 15 16 18 20 21 20 19 16 14 13
6 5 6 5 7 8 8 9 11 11 12 13 14 12 13 13 12 12 13 14 14 14 13 13 14 13 12 11 11 12 14 15 15 15 15 16 17 17 16 15 15 15 15
5 7 7 9 9 8 8 9 10 10 12 12 13 13 12 11 10 10 13 15 14 13 13 14 13 12 12 13 13 13 14 14 13 13 14 14 15 14 13 13 13 14 14
7 7 10 11 10 10 8 9 10 9 11 12 12 12 10 11 10 10 12 12 12 12 12 13 13 13 16 18 17 14 12 12 12 13 13 13 12 12 14 13 13 13 13
11 12 12 14 13 11 10 8 10 9 11 10 10 10 9 10 11 10 10 10 11 12 12 13 13 17 19 20 20 17 14 13 12 11 11 10 11 12 10 12 14 14 15
10 13 16 16 13 13 14 6 8 8 9 8 7 7 8 10 10 12 11 9 9 11 11 13 16 17 18 18 18 17 17 16 13 13 13 13 13 14 13 12 13 15 17
11 14 16 16 14 13 12 10 9 9 9 8 7 8 8 8 9 9 9 8 8 10 12 14 14 15 15 14 14 15 17 18 17 18 17 17 17 15 14 13 14 18 22
12 15 16 16 15 14 13 12 9 10 10 9 9 8 7 8 9 9 8 8 10 11 13 12 12 12 12 12 14 16 16 17 18 20 18 16 16 15 13 15 18 20 27
12 15 14 14 14 12 11 11 10 9 8 8 7 6 6 5 6 6 9 11 11 11 12 13 15 17 17 17 17 16 15 16 19 22 21 19 19 20 19 18 18 24 28
13 13 13 11 10 10 9 8 7 6 6 4 4 3 3 4 5 7 12 14 15 12 12 14 14 16 16 15 14 15 18 18 20 20 21 23 23 23 22 19 22 24 27
13 12 12 9 8 8 8 8 6 6 5 4 5 4 4 6 7 12 11 14 13 12 12 12 13 14 14 13 15 17 18 21 20 19 18 20 22 22 23 22 24 26 28
12 9 9 7 5 5 6 6 7 8 7 5 4 4 6 8 8 10 10 12 10 10 10 9 10 11 10 9 13 15 16 18 19 19 20 21 21 21 22 21 23 24 27
13 11 11 8 8 7 7 6 6 7 6 6 6 7 6 7 6 8 8 8 9 8 8 6 7 7 8 8 9 10 12 13 14 15 15 17 19 21 21 24 25 28 30
14 13 11 9 9 7 5 5 7 7 5 5 5 5 7 6 6 6 7 7 7 5 4 4 6 8 9 9 8 8 10 11 12 15 16 17 20 22 24 27 29 31 33
17 16 13 10 8 7 5 3 2 4 4 4 5 5 6 7 7 6 5 5 5 4 2 4 8 9 7 5 7 7 9 11 13 14 17 18 21 25 28 29 31 33 35
19 18 16 13 9 7 5 4 4 3 4 4 5 6 7 8 8 7 6 5 5 4 5 7 6 5 3 3 4 7 10 11 14 17 18 20 24 29 30 31 32 34 36
21 19 18 14 11 8 6 6 6 6 5 6 5 9 10 10 10 10 9 8 7 7 8 7 4 4 3 2 4 8 10 12 15 17 21 26 27 28 30 32 34 35 37
24 22 21 18 14 11 10 9 9 8 8 9 8 10 14 13 13 13 13 11 10 10 9 6 5 3 2 6 8 9 12 13 17 21 22 26 31 35 35 35 37 39 40
25 24 22 20 18 14 13 12 12 12 10 12 11 12 15 17 16 15 15 14 11 9 8 6 2 2 3 3 4 7 10 14 17 19 20 22 26 30 33 38 40 40 41
25 25 23 22 20 16 13 13 14 14 13 15 13 13 16 19 18 16 15 12 11 9 7 5 3 3 2 4 6 8 12 15 18 22 24 26 27 27 29 31 35 38 42
26 27 26 24 20 16 14 14 15 14 14 15 15 13 15 18 18 16 14 12 10 8 6 6 7 8 9 9 10 13 14 17 22 24 26 29 30 32 34 34 37 36 36
28 28 27 25 22 18 17 15 14 13 12 15 14 13 13 15 17 16 13 12 9 8 7 8 11 13 10 11 14 16 17 17 19 26 26 28 31 30 33 36 40 40 37
32 29 29 27 24 21 19 17 15 14 12 15 15 12 14 15 15 13 13 12 10 8 8 8 9 12 14 17 17 18 21 23 24 26 28 30 32 32 35 37 40 42 40
35 32 31 30 27 24 22 19 18 18 15 16 15 14 15 15 16 14 14 12 11 9 9 10 12 14 16 18 22 22 21 24 27 31 35 30 33 34 37 41 43 45 42
37 34 32 31 28 26 24 22 20 19 17 16 17 15 15 16 16 14 13 14 13 11 13 16 19 19 20 23 26 29 28 26 28 34 39 38 38 35 34 41 44 43 40
36 36 34 31 31 29 27 23 21 20 18 18 19 17 16 16 16 15 14 14 13 16 19 20 22 22 23 27 29 32 34 33 34 32 40 38 39 41 38 35 40 44 44

GFSMA_500_spd_054.txt.gz
Wind_Speed
5 5 6 6 6 8 10 11 14 13 14 12 13 15 13 13 13 14 15 15 14 15 15 15 14 14 14 15 15 17 18 20 20 21 22 22 22 21 21 21 20 20 20
5 5 5 5 7 5 6 10 11 15 14 13 11 11 10 10 11 12 15 15 15 15 15 14 15 14 14 13 14 16 17 18 19 18 19 18 17 17 17 18 17 17 19
3 5 6 10 2 7 7 7 9 10 11 12 10 8 8 9 12 12 14 15 15 14 14 15 17 18 17 16 15 16 17 17 16 15 16 15 16 17 17 17 18 19 20
8 7 7 8 8 9 10 8 9 8 9 9 9 8 9 9 11 13 13 14 13 14 16 17 20 21 21 18 16 15 14 14 14 15 16 16 18 17 16 19 21 22 22
10 5 5 8 9 10 11 9 7 8 8 8 7 8 9 10 10 10 11 12 14 14 16 16 17 18 19 19 21 20 19 18 18 19 20 20 20 19 19 19 20 21 23
10 7 10 8 9 10 11 8 7 7 5 7 6 7 10 11 11 10 11 11 11 13 14 14 14 17 18 19 20 20 20 22 22 23 22 21 18 18 19 18 21 27 29
13 7 10 9 12 7 9 9 7 7 8 8 6 6 8 8 8 9 9 10 11 12 13 14 17 17 17 17 18 20 23 25 25 23 21 20 19 18 19 21 23 25 27
13 12 12 10 10 9 8 9 9 9 9 10 9 9 7 7 7 7 10 11 11 12 16 19 19 18 19 19 19 21 22 23 23 22 23 23 24 24 22 22 23 24 25
12 13 12 12 10 8 8 8 8 8 8 8 8 9 9 7 7 7 11 13 12 14 16 19 21 20 18 19 19 21 21 22 26 26 28 28 26 24 24 24 26 26 27
13 13 12 11 9 8 7 6 5 5 5 5 5 6 6 5 8 11 10 14 15 15 16 19 17 18 17 21 20 20 22 24 23 23 24 23 24 23 22 24 24 25 27
10 11 10 9 8 7 6 4 5 3 3 4 6 6 8 10 11 14 12 12 14 15 14 15 15 15 16 18 18 19 20 21 21 21 21 22 22 22 24 25 27 29 31
10 8 6 6 6 6 6 6 5 4 4 4 4 7 9 13 13 12 10 11 10 11 13 13 12 12 13 15 14 14 15 15 16 17 19 21 22 24 25 27 29 31 33
10 9 7 6 8 9 9 8 5 4 3 4 4 6 9 10 12 12 8 7 7 9 10 9 10 11 12 11 11 13 14 15 16 17 18 20 22 25 27 29 30 32 34
10 11 8 7 9 9 8 8 5 4 2 4 4 4 6 6 8 8 8 6 7 7 8 10 13 12 10 9 10 11 12 13 14 16 17 19 23 27 28 28 30 31 33
14 12 10 8 7 6 5 5 4 3 1 1 4 4 4 6 6 5 6 4 5 5 7 11 12 10 7 7 8 10 11 13 15 16 18 21 25 25 27 29 30 32 35
16 14 12 9 8 6 4 2 3 2 1 1 4 6 6 8 7 5 4 4 4 3 6 7 7 6 4 4 4 7 9 10 13 16 20 23 25 26 30 31 31 32 36
18 17 15 12 10 9 6 4 2 2 3 4 4 7 9 9 9 9 7 6 6 6 6 5 4 4 3 2 4 6 8 9 12 14 15 22 26 31 31 32 32 34 36
21 21 19 17 15 12 9 6 5 4 4 6 6 8 11 11 11 10 10 8 9 8 6 4 3 2 0 2 3 5 7 10 15 18 20 20 21 24 29 30 34 38 40
22 22 21 20 19 16 12 9 7 6 7 9 10 9 12 13 14 14 12 10 10 9 8 6 5 3 1 2 3 5 7 9 11 12 12 16 20 23 24 27 30 33 37
24 23 23 22 22 18 14 12 10 8 8 10 11 12 13 16 16 16 15 13 12 10 9 8 6 4 4 6 8 8 11 14 13 18 21 24 27 27 28 29 30 34 37
25 24 24 24 22 19 17 15 13 9 8 10 13 13 14 16 18 18 16 14 13 12 11 9 9 8 8 9 11 14 16 17 19 21 20 25 26 29 31 32 33 35 37
28 26 23 24 23 20 19 17 14 11 8 9 13 15 15 15 17 19 18 16 15 14 12 11 10 11 12 13 15 18 20 21 19 22 22 25 28 30 33 35 35 37 38
30 26 24 24 23 23 22 19 16 12 10 11 13 14 15 16 18 19 20 19 18 16 14 12 11 12 12 16 17 19 21 23 25 24 25 27 29 30 33 35 35 36 39
31 30 28 26 26 26 24 23 19 15 13 11 14 15 17 18 19 19 18 18 18 16 14 12 12 13 12 15 18 21 23 24 23 26 29 28 29 31 34 36 37 38 39
33 32 32 30 28 28 28 25 23 18 16 15 15 16 18 19 21 21 18 18 18 17 16 16 16 16 18 18 20 24 27 29 29 28 33 33 33 32 34 36 36 37 40
32 34 35 35 33 32 31 28 25 21 18 19 17 19 19 20 22 21 20 19 17 19 18 17 19 20 20 21 25 26 27 30 32 29 34 32 32 32 29 33 37 39 40

GFSMA_500_spd_057.txt.gz
Wind_Speed
6 6 5 6 10 10 13 13 15 16 17 19 16 15 18 17 18 17 17 17 17 16 16 16 15 17 19 21 22 23 23 22 21 21 21 22 22 23 23 22 22 23 24
6 4 4 5 6 9 12 13 13 15 16 15 15 16 15 15 15 17 17 16 16 15 16 17 16 16 18 19 20 20 20 19 19 21 20 20 20 23 24 23 24 26 23
6 1 6 7 6 7 10 13 12 12 13 10 14 16 15 13 15 16 16 16 17 18 19 19 19 18 18 18 18 17 18 18 19 19 19 22 21 22 24 25 23 22 25
7 4 5 8 6 8 8 11 11 11 10 13 15 14 15 13 13 14 15 16 17 17 19 18 21 23 22 21 20 21 22 23 23 22 22 24 25 24 24 21 24 28 29
10 3 5 7 8 9 8 8 9 10 10 11 11 12 12 12 11 12 13 14 16 16 17 19 22 23 24 24 24 25 25 24 24 24 25 25 24 23 20 21 24 26 27
8 9 7 8 6 9 11 8 8 8 9 10 11 9 13 13 12 13 12 13 14 15 16 18 18 19 21 24 26 26 25 25 25 24 24 24 24 21 20 22 23 25 27
12 10 6 8 6 9 10 8 10 8 7 9 11 10 9 11 11 12 12 13 13 18 18 16 20 21 24 24 24 24 26 28 27 26 27 25 23 21 21 24 27 29 31
8 12 10 8 7 9 10 10 10 10 8 9 9 11 11 12 9 10 14 13 17 19 20 20 23 24 23 23 23 25 28 30 30 29 27 24 22 22 22 24 27 29 29
13 11 11 10 8 9 10 9 10 9 10 8 8 8 9 10 11 12 14 17 19 22 21 21 21 21 22 24 25 26 27 27 25 24 23 23 23 24 25 27 27 27 29
13 11 10 10 10 9 9 7 7 7 9 7 6 6 8 8 14 14 15 17 19 21 18 20 21 20 21 22 24 23 23 23 23 23 23 23 24 26 27 27 28 29 30
13 12 10 8 7 8 7 7 6 7 7 9 9 7 10 13 14 14 16 15 18 18 17 18 18 17 18 19 19 18 19 19 20 20 21 23 25 26 28 29 29 30 32
12 11 9 7 6 6 5 7 7 7 7 9 10 13 12 14 14 13 11 13 15 16 16 15 15 15 15 15 15 15 17 18 18 19 19 22 24 25 27 27 28 30 32
9 8 7 8 8 8 7 7 6 6 8 8 10 12 14 14 13 12 11 12 12 11 13 16 16 13 12 12 12 14 14 14 16 17 18 20 23 26 27 28 29 30 33
10 9 7 8 9 8 6 7 6 6 7 7 7 11 12 13 10 9 10 13 12 11 12 16 16 13 11 10 11 11 11 13 14 16 18 21 22 21 26 29 29 31 33
12 10 8 7 8 6 5 4 4 4 5 5 4 7 9 9 11 8 8 10 11 13 14 15 13 10 9 7 7 10 10 11 13 15 18 23 25 26 28 28 29 31 33
13 12 11 7 7 6 4 2 2 2 2 3 4 5 7 9 9 10 4 6 8 10 10 9 9 7 4 4 5 5 6 7 8 13 17 22 24 23 26 27 29 31 33
15 13 13 12 9 7 6 3 1 1 1 2 2 5 6 8 9 8 9 8 7 7 6 6 4 3 2 2 2 3 5 8 12 14 16 17 18 21 24 25 28 32 35
20 18 17 15 14 11 8 5 3 3 3 4 5 5 9 8 10 10 10 8 7 7 6 4 3 2 2 1 2 5 7 10 13 14 14 15 18 20 22 26 28 30 32
22 22 19 18 16 15 12 8 8 6 6 6 8 8 10 12 12 12 12 12 11 9 7 5 4 4 4 4 4 6 9 11 14 15 15 16 18 22 26 27 28 30 31
24 22 21 19 19 17 15 11 10 10 10 9 10 11 11 13 15 14 14 14 13 12 11 10 9 8 7 6 8 10 12 13 16 18 19 21 23 27 28 29 30 31 32
24 25 23 21 19 17 16 15 13 10 11 11 12 13 13 14 16 17 16 16 16 15 14 13 12 11 10 10 11 12 13 16 20 22 22 24 24 28 29 31 32 32 33
27 25 23 22 20 19 19 18 15 12 10 11 13 15 16 15 15 18 20 19 18 17 17 16 15 15 13 13 12 14 15 18 18 23 22 25 28 30 31 31 33 32 32
31 26 25 24 22 23 22 20 18 15 12 11 13 14 17 17 17 17 21 22 21 21 20 18 17 17 15 16 16 17 17 19 20 23 23 26 30 30 32 33 33 34 34
31 30 28 27 26 24 24 22 21 19 16 15 14 15 17 19 19 20 21 23 24 23 23 21 19 19 15 15 17 18 19 20 23 25 27 26 31 31 31 31 31 34 35
32 32 31 29 28 27 25 24 24 23 21 20 18 17 19 21 22 22 22 23 24 24 24 22 19 18 17 19 20 17 20 23 25 27 30 30 30 29 28 29 31 34 35
33 34 33 32 31 30 29 28 26 25 25 23 23 21 21 23 26 24 24 25 24 25 23 20 19 19 20 20 18 21 23 27 28 27 31 33 30 28 25 27 31 33 34

GFSMA_500_spd_060.txt.gz
Wind_Speed
11 9 10 11 10 12 12 15 16 19 18 18 18 19 15 15 18 18 17 17 16 15 14 16 17 19 20 20 20 21 21 21 23 22 23 24 24 24 26 26 26 25 24
11 10 10 9 9 11 13 14 14 15 18 18 18 16 18 18 17 19 18 18 17 16 15 15 15 16 18 19 19 19 19 22 23 23 22 22 23 27 26 25 26 26 26
10 10 10 11 8 11 12 13 12 13 17 17 15 15 18 18 18 18 20 19 19 18 18 18 17 17 18 19 20 22 23 24 24 23 23 24 26 26 25 25 26 28 27
9 10 10 10 10 9 12 12 11 13 14 14 12 16 17 17 16 17 19 18 18 19 22 24 25 25 24 24 25 25 24 25 25 25 24 25 24 23 24 25 25 25 25
6 8 10 12 14 11 11 12 12 12 12 12 12 13 14 14 14 16 17 17 17 19 22 23 24 26 26 25 23 23 24 26 25 25 23 22 21 22 24 27 28 28 29
7 10 9 11 13 11 12 13 12 13 12 13 13 12 13 13 13 14 15 17 16 17 18 20 23 25 24 22 22 24 26 27 26 24 23 22 22 24 26 26 27 27 28
9 9 10 9 11 10 11 12 11 13 9 11 12 12 9 10 11 14 14 16 16 16 20 23 24 23 26 29 28 28 27 26 25 24 23 22 23 25 25 26 27 28 27
10 11 11 9 11 11 12 12 11 12 10 9 10 11 9 9 11 12 14 15 18 21 23 22 22 24 27 29 28 27 25 23 22 22 22 23 24 25 26 27 27 27 29
9 12 12 11 11 10 11 11 12 11 11 10 10 9 10 9 13 13 15 17 19 21 22 23 22 25 26 26 25 23 21 20 20 20 21 23 25 27 27 27 27 28 30
9 11 10 10 10 8 9 9 9 9 10 11 9 9 11 13 13 14 15 17 17 19 22 23 22 23 23 21 21 20 18 18 18 19 21 24 26 26 26 27 28 30 30
9 10 10 9 8 8 7 8 6 10 10 12 14 11 14 17 15 13 13 13 15 18 20 21 20 20 18 18 18 17 15 16 15 17 20 23 25 26 27 27 28 30 33
10 9 8 9 7 7 6 7 7 8 9 10 15 16 15 17 17 13 11 10 9 13 17 18 17 17 15 15 14 12 12 13 14 16 20 22 21 24 28 29 28 31 32
9 6 7 8 8 8 7 6 7 8 8 12 12 16 19 18 16 13 14 13 11 12 14 15 13 12 12 12 11 8 10 12 13 15 19 19 20 23 27 28 29 32 33
10 7 6 9 8 7 7 7 7 7 8 10 12 13 14 14 16 15 13 15 14 14 15 13 10 10 9 8 6 6 8 11 13 15 18 21 23 16 23 26 28 29 31
11 9 8 8 6 6 6 5 5 5 5 7 9 11 13 14 14 15 11 11 15 16 16 14 9 8 6 5 4 5 8 10 12 13 19 23 25 23 25 27 28 31 32
12 11 9 8 7 5 4 4 3 3 3 4 6 7 10 11 12 14 14 12 12 15 14 12 8 5 3 1 1 4 5 7 10 15 19 19 21 23 26 27 29 32 35
13 13 12 9 8 7 4 1 1 1 1 2 5 6 7 9 10 10 12 14 13 13 11 9 6 4 3 2 1 3 5 9 13 15 16 18 19 23 26 28 29 31 34
17 16 15 14 11 9 7 5 2 2 3 4 5 7 9 9 9 11 11 12 12 11 11 9 7 6 4 5 5 5 7 10 13 15 16 18 19 22 25 26 27 29 31
22 20 19 18 16 15 13 10 8 5 5 7 8 8 10 12 12 12 12 12 12 11 11 10 9 8 7 6 7 9 9 11 14 16 17 19 20 23 26 28 29 30 31
24 23 22 22 20 19 17 14 12 9 6 7 10 11 12 13 15 14 14 14 14 13 13 12 11 11 10 9 10 10 13 12 14 17 21 21 24 26 27 29 31 32 32
27 26 25 22 22 21 19 18 16 13 9 8 10 13 15 15 16 17 18 17 17 17 17 16 15 14 14 12 12 14 14 14 16 18 19 24 25 29 30 29 30 31 32
30 28 26 26 23 20 20 20 19 16 13 11 12 13 16 18 18 18 21 21 21 20 20 19 19 19 19 17 17 17 15 14 13 20 20 26 27 31 33 32 31 30 30
32 29 28 26 24 23 23 22 22 20 18 15 13 13 14 18 20 19 20 23 24 23 24 23 23 23 21 20 20 18 16 15 16 19 24 27 28 32 33 32 30 28 29
33 31 30 28 27 26 25 24 25 24 22 19 17 16 15 17 20 22 21 21 25 27 28 26 25 25 23 24 21 16 17 19 18 22 26 27 29 33 33 29 27 27 28
36 33 32 32 29 29 28 27 26 25 25 24 22 19 19 19 22 24 24 23 24 27 30 28 26 26 27 26 21 17 21 20 19 21 27 28 30 32 33 29 27 26 28
38 38 36 34 33 32 33 31 29 27 25 25 26 24 24 24 26 27 26 28 25 28 31 29 28 29 29 25 22 22 21 21 22 25 30 33 32 33 31 30 26 25 27

GFSMA_500_spd_063.txt.gz
Wind_Speed
13 11 11 14 15 17 18 16 16 15 15 15 16 17 20 17 15 16 16 15 16 17 16 18 18 18 19 20 20 21 21 23 23 24 25 27 27 26 24 24 27 27 27
11 9 9 13 14 13 15 17 16 16 16 15 17 17 18 15 16 17 19 18 16 15 15 16 17 17 18 18 20 22 24 24 23 24 26 28 28 26 25 25 26 25 25
12 10 11 12 12 13 13 15 17 16 15 16 19 17 14 14 16 19 20 21 20 18 17 18 18 18 19 22 24 24 23 22 23 25 26 26 25 25 23 25 26 26 27
12 11 12 10 14 11 12 13 14 14 16 17 18 16 12 14 15 17 19 21 23 25 23 22 23 22 23 23 22 23 23 23 24 24 24 24 23 25 25 26 26 27 28
10 11 11 9 13 12 13 12 11 13 13 15 15 13 12 14 14 16 18 20 20 23 23 24 24 23 22 22 22 24 24 24 24 24 24 23 24 24 25 26 26 28 29
12 12 10 10 10 11 11 13 11 11 13 14 13 12 13 13 13 15 16 18 17 19 24 23 22 21 23 25 26 26 25 24 24 23 23 24 23 24 25 26 27 27 28
12 13 11 8 10 10 10 10 9 12 11 10 10 11 14 13 12 14 13 15 17 20 22 21 23 25 27 28 27 26 24 22 22 23 24 24 23 24 25 26 26 27 28
9 11 12 11 11 11 10 9 8 10 11 10 7 7 11 14 13 13 13 16 19 21 21 24 24 25 26 24 24 22 21 21 22 22 22 23 24 25 26 27 28 29 30
10 10 13 11 11 11 11 10 10 9 11 10 9 6 7 13 13 13 13 16 18 20 23 23 24 23 23 20 20 19 19 19 20 22 22 24 26 26 26 29 30 32 32
12 8 10 12 11 11 12 10 9 10 9 11 10 8 9 13 13 13 13 14 14 19 20 20 19 18 18 18 18 18 18 18 20 21 22 23 25 25 28 29 32 33 34
11 10 8 8 9 7 8 10 9 11 8 10 12 10 12 14 13 12 11 11 10 17 16 15 14 14 15 16 16 16 17 16 18 20 21 19 24 25 28 30 32 34 35
11 9 7 6 8 7 9 10 11 11 9 10 14 15 13 14 12 10 10 9 9 16 14 14 13 12 12 11 11 13 14 14 17 19 18 21 19 21 28 31 31 33 35
12 9 7 7 7 8 7 9 9 12 11 11 15 19 17 15 14 12 11 10 14 16 13 12 10 10 9 8 8 10 12 14 16 17 16 24 22 25 27 27 30 32 35
13 11 9 8 10 9 9 9 8 10 12 12 14 15 17 17 15 14 13 12 16 17 14 11 9 7 7 6 6 9 11 13 15 15 19 23 26 26 28 30 31 32 34
11 12 12 12 10 9 9 9 8 7 9 12 14 13 11 10 12 13 11 13 15 16 14 11 8 5 4 5 5 7 7 9 12 13 18 19 20 23 27 29 30 32 35
13 11 12 12 11 9 7 7 7 6 6 9 12 14 14 13 12 12 11 12 14 14 13 10 7 4 1 2 3 4 6 8 10 15 18 20 20 22 26 28 30 31 34
13 14 13 11 10 11 8 5 5 4 4 4 8 13 13 12 12 13 13 13 14 14 12 9 6 4 3 2 4 4 6 8 11 14 17 19 20 21 24 25 27 30 32
16 16 14 13 12 11 9 7 4 3 3 3 5 8 13 14 14 13 13 12 12 12 12 9 7 6 5 6 6 7 8 9 11 13 15 18 20 23 26 27 28 30 32
20 18 18 17 16 13 11 9 6 4 3 4 5 7 9 13 15 15 15 15 14 13 12 12 11 9 9 10 11 12 11 12 14 14 17 19 21 24 27 30 30 31 31
25 23 22 21 19 17 15 12 10 9 7 6 7 8 10 11 14 16 17 17 17 17 17 16 15 15 14 14 14 13 15 15 16 16 18 20 24 27 29 31 32 30 31
28 26 25 25 23 21 19 17 16 14 12 9 9 9 12 13 14 17 18 19 20 21 20 20 20 20 20 17 16 17 17 18 20 16 19 22 26 27 28 31 33 31 29
33 31 28 27 26 24 23 21 20 20 18 14 12 11 12 13 15 17 20 22 22 23 23 22 23 22 24 21 19 20 20 20 17 20 17 21 25 31 30 33 35 31 28
36 33 31 29 26 25 25 24 24 22 20 19 16 14 14 14 16 18 20 21 23 25 25 26 26 27 27 26 23 23 22 20 18 20 19 22 25 28 31 31 30 29 26
39 37 35 33 31 28 27 26 26 24 22 22 20 18 18 17 17 18 20 21 22 24 28 29 28 31 28 29 26 23 22 20 20 23 23 24 25 30 31 32 33 29 26
43 39 39 38 34 32 31 29 28 25 24 24 24 24 22 21 21 20 19 20 23 24 25 28 31 31 30 31 29 25 24 21 21 23 25 23 27 30 30 34 32 29 26
46 45 43 40 37 37 36 34 33 30 27 26 26 26 26 25 27 26 23 23 22 26 28 27 27 31 33 33 31 27 25 23 25 25 25 24 28 30 34 37 33 30 26

GFSMA_500_spd_066.txt.gz
Wind_Speed
15 16 15 15 16 15 17 16 16 15 16 16 18 19 20 20 15 14 15 14 15 15 16 17 17 19 20 21 22 23 24 25 28 28 26 23 22 22 22 24 24 23 25
11 12 14 15 16 16 16 17 16 15 15 16 17 18 18 17 15 16 17 16 15 15 15 17 17 18 21 23 23 24 25 26 25 25 24 22 22 23 25 26 26 24 26
11 9 13 14 15 15 15 17 17 16 15 15 15 17 17 17 16 16 17 17 16 16 17 17 18 22 24 23 22 23 23 24 23 22 21 22 23 24 25 26 27 27 30
11 10 11 12 11 15 15 16 17 17 17 15 14 15 15 15 17 18 19 18 19 19 19 21 23 23 22 22 22 23 24 23 22 21 21 22 23 24 26 27 27 29 30
11 10 11 11 12 11 13 15 16 18 17 15 14 14 13 14 15 16 17 19 20 21 23 23 21 20 22 24 24 25 23 22 22 23 22 22 24 25 26 27 28 29 29
10 11 12 12 11 12 11 13 14 15 16 15 14 13 13 14 14 14 14 15 18 20 20 19 21 23 25 26 25 23 22 23 23 22 22 24 25 27 28 28 30 31 32
10 10 9 10 11 10 10 10 12 12 13 15 15 12 13 15 13 13 12 14 17 17 19 21 24 26 25 24 22 22 23 22 22 23 24 24 26 27 29 31 32 33 33
10 9 8 9 8 8 8 10 9 10 9 12 13 12 11 14 14 13 13 17 17 19 21 23 24 23 21 20 20 21 21 22 23 23 24 25 26 27 30 32 34 34 35
13 10 10 11 10 8 8 9 10 10 10 9 11 10 12 13 14 14 15 16 18 20 21 21 19 18 17 17 18 20 21 21 21 23 24 24 26 28 30 32 34 35 36
13 12 10 11 11 9 9 9 9 11 11 9 10 11 13 13 13 14 14 15 18 19 19 17 16 16 16 17 18 19 19 20 21 21 20 23 25 32 32 33 33 35 34
13 13 12 10 10 9 8 9 9 10 12 12 10 13 13 13 14 13 12 14 19 17 16 13 14 13 14 16 17 17 18 19 19 20 22 14 22 29 30 30 32 33 34
14 13 13 10 9 9 10 9 9 10 11 12 12 15 13 13 12 12 12 13 16 13 12 12 11 12 12 13 15 16 16 18 17 18 23 25 25 25 28 30 31 33 35
16 14 12 11 10 10 11 10 10 11 12 12 14 16 15 14 13 11 12 12 14 12 10 8 8 8 9 10 11 11 13 14 14 17 20 23 25 26 29 31 31 32 35
14 13 13 12 12 12 12 11 10 12 15 15 14 14 16 14 14 11 10 12 15 12 9 8 5 4 5 6 7 7 10 13 14 15 18 21 23 24 25 27 30 32 35
14 13 14 13 12 11 12 11 12 12 14 16 15 14 11 13 13 12 10 12 14 14 11 7 5 4 3 3 5 6 9 10 13 14 16 19 21 21 24 28 29 31 33
15 13 14 13 12 12 11 11 11 12 13 14 15 15 12 11 12 12 12 13 16 15 13 10 8 4 2 1 3 5 7 8 10 13 17 19 21 23 25 27 29 29 31
14 15 16 15 12 10 11 11 10 10 11 13 16 17 16 14 14 14 14 14 14 15 14 13 9 6 5 4 5 6 7 9 10 12 14 17 21 24 27 29 29 30 30
15 15 15 14 14 12 10 9 9 9 9 10 12 15 17 17 16 15 15 15 15 16 15 14 11 9 8 8 8 9 10 10 12 14 15 16 18 22 25 27 30 30 28
17 16 16 16 15 15 12 10 9 9 8 7 8 10 14 17 18 18 17 17 17 17 17 16 14 13 12 11 12 12 14 15 15 15 16 16 18 21 23 26 30 31 28
23 21 20 19 19 16 14 12 11 10 8 7 6 7 10 13 17 19 20 20 21 20 19 19 18 18 17 16 16 15 17 17 19 18 19 17 18 22 24 26 27 29 28
28 27 25 23 22 20 18 16 15 14 13 9 7 8 9 11 12 16 19 22 22 23 22 22 22 22 22 22 19 19 19 19 22 19 18 19 20 22 21 25 25 28 28
34 32 29 28 27 24 23 21 20 19 19 15 13 12 11 11 13 15 17 20 22 23 23 24 25 25 27 27 22 21 22 20 20 23 19 19 19 20 21 25 25 30 26
39 37 36 33 30 29 28 26 24 24 22 20 20 17 14 14 14 15 17 18 18 21 24 25 26 29 29 30 25 25 24 22 21 22 18 19 21 20 19 22 25 30 27
42 40 40 38 35 32 31 29 28 27 26 24 22 22 19 18 17 16 15 16 18 18 21 24 26 29 31 32 29 28 27 23 22 23 21 20 21 20 21 24 24 28 27
46 44 42 41 39 37 35 33 33 30 27 26 26 25 23 22 21 20 17 16 16 19 21 22 22 22 26 30 31 30 28 26 24 25 26 24 24 22 23 27 27 28 28
49 49 45 42 41 40 40 39 38 34 31 27 28 27 27 26 27 26 23 23 19 22 22 21 21 22 23 26 29 31 31 28 27 25 29 26 27 28 26 28 30 29 30

GFSMA_500_spd_069.txt.gz
Wind_Speed
13 16 17 16 16 16 16 15 16 17 18 17 17 16 17 17 15 14 15 14 14 13 14 16 18 20 20 22 22 25 26 24 23 21 19 20 21 22 23 26 26 25 25
13 14 16 17 17 16 15 15 16 17 17 16 17 18 18 17 14 14 15 15 15 14 15 17 19 20 22 22 24 23 22 21 20 20 20 22 24 25 26 26 27 27 28
12 14 14 15 16 16 15 15 16 17 17 16 17 18 19 18 15 13 14 14 14 15 16 19 21 21 23 23 23 22 20 19 20 20 22 24 25 26 26 26 26 27 28
12 14 12 13 14 15 15 14 15 16 16 16 16 18 19 17 15 14 13 13 14 16 19 21 20 21 23 23 22 21 20 21 20 22 24 26 26 26 27 28 30 30 28
10 11 11 12 12 14 15 16 15 14 14 14 16 17 18 16 15 14 15 16 17 20 20 19 19 22 23 23 21 21 21 21 23 23 24 26 28 29 29 30 31 31 29
10 10 10 10 12 13 14 15 15 13 12 14 15 16 17 15 14 14 14 15 18 18 17 17 20 22 22 22 21 21 22 22 23 24 26 28 29 30 31 32 32 32 31
9 9 9 11 10 11 12 12 14 14 13 13 15 15 15 14 13 13 14 16 15 16 18 20 21 21 21 21 20 21 22 23 24 25 25 26 28 30 31 32 33 33 33
7 7 9 10 11 11 11 10 11 13 13 12 12 14 13 13 13 14 16 15 18 20 21 22 20 20 19 19 20 21 22 23 24 25 28 29 30 30 31 33 33 33 34
8 7 9 10 10 11 11 11 10 10 11 9 11 12 13 13 13 14 16 19 20 20 20 18 17 16 17 17 19 20 21 21 20 21 23 28 28 30 30 32 34 34 33
10 10 9 8 8 9 10 11 11 10 11 12 10 12 12 13 14 14 14 19 20 18 17 16 15 16 16 17 19 19 19 20 21 16 21 24 27 29 30 31 32 33 33
12 10 10 9 9 8 8 10 12 11 11 11 12 13 13 13 14 13 14 19 18 16 14 14 14 14 16 17 17 17 17 17 20 22 20 24 26 26 28 30 31 33 33
14 13 11 10 9 9 8 7 11 12 11 11 13 14 13 12 13 12 14 19 16 13 13 11 11 12 14 15 14 12 14 15 16 18 19 21 23 25 27 29 30 31 32
14 13 11 10 9 9 9 9 11 12 13 11 14 16 16 16 12 12 15 18 15 13 12 11 9 9 9 10 10 10 13 14 15 16 18 20 23 25 27 28 29 30 31
16 14 12 9 10 10 10 9 10 12 13 14 15 16 15 14 14 12 13 17 14 12 10 8 7 6 7 8 8 8 10 11 13 15 17 19 22 24 26 27 27 27 28
16 15 14 13 11 11 12 10 11 12 14 16 15 14 14 13 12 12 12 17 15 12 9 7 6 5 4 5 5 5 5 9 10 12 15 18 20 22 25 27 28 28 27
16 15 15 14 13 12 11 12 11 13 14 16 17 16 12 11 12 12 11 14 15 12 9 7 5 4 3 3 3 2 4 6 8 11 14 15 18 20 22 25 28 29 26
18 17 16 15 12 10 9 9 11 12 14 16 17 17 16 14 12 12 13 13 13 13 12 11 8 6 5 3 2 3 5 6 8 10 13 14 14 17 20 22 25 27 28
20 17 18 17 15 13 10 7 8 10 12 14 16 17 16 15 15 15 14 13 13 14 14 14 11 11 10 8 7 7 9 9 9 10 12 13 12 15 18 20 25 27 27
21 20 19 18 18 16 13 10 8 7 8 10 13 16 17 16 17 17 17 16 16 16 17 16 15 15 14 13 13 13 13 13 13 13 13 13 12 13 15 17 19 24 26
24 22 22 21 20 18 16 13 12 10 9 8 9 10 14 16 18 18 18 19 19 19 19 19 19 19 19 18 18 16 17 16 16 15 17 15 13 13 12 15 19 24 27
28 27 25 23 22 20 19 17 17 15 14 12 9 9 10 11 13 16 19 20 21 22 23 23 23 23 23 23 22 18 19 22 23 19 19 18 16 16 16 15 18 22 27
33 31 27 26 24 22 22 22 21 19 18 16 14 12 11 10 10 13 15 18 20 22 25 26 26 26 28 27 25 22 21 23 23 25 19 22 18 17 18 16 19 23 25
38 35 33 31 28 27 26 26 25 24 22 22 21 18 16 14 13 12 12 14 16 19 22 25 25 28 29 31 27 25 23 24 25 25 21 22 21 18 19 19 20 21 24
42 40 38 36 34 32 31 30 30 28 28 26 24 24 22 20 18 16 14 13 14 15 19 21 22 24 25 26 26 25 26 26 25 26 23 22 24 21 19 19 20 22 24
44 44 43 41 38 37 37 35 35 33 31 30 28 27 25 25 24 22 20 18 17 17 17 17 17 19 19 20 21 21 22 23 23 24 26 23 25 25 24 22 21 23 24
46 46 44 43 41 39 39 40 39 37 34 31 30 29 27 26 28 29 26 24 21 24 23 21 18 17 18 19 21 23 23 21 20 22 28 26 27 27 25 24 26 27 28

GFSMA_500_spd_072.txt.gz
Wind_Speed
14 14 13 14 15 15 14 14 16 16 16 15 12 12 14 15 15 14 14 13 14 14 15 17 18 19 20 22 22 21 21 21 18 20 20 22 24 24 24 23 23 25 27
13 14 13 13 15 15 15 15 16 17 16 15 15 14 14 15 15 13 13 12 13 14 16 16 19 19 20 21 19 20 20 21 21 22 23 24 25 24 23 24 25 27 29
12 14 13 10 12 14 14 15 14 16 17 18 17 16 16 16 15 13 12 10 12 13 16 19 20 20 20 19 18 20 21 22 23 23 25 25 26 26 26 26 27 27 29
9 11 13 11 11 12 13 14 14 15 17 17 16 16 16 15 14 12 12 11 12 15 18 19 20 20 18 19 20 20 22 23 25 26 27 27 27 27 27 29 29 29 30
10 9 11 12 12 11 12 13 14 15 15 16 15 15 16 16 15 12 13 12 15 17 16 17 19 21 21 21 21 21 22 25 26 27 28 28 28 28 29 30 29 29 30
9 9 9 10 11 12 12 12 11 13 13 13 14 15 15 16 15 15 16 18 17 15 16 18 21 21 21 20 20 22 23 24 25 26 26 27 29 29 31 31 30 31 32
10 7 8 9 10 9 11 12 11 10 11 13 13 12 13 13 13 16 16 16 15 16 18 21 21 20 20 20 21 23 24 26 25 25 27 27 28 30 30 30 29 30 31
8 8 6 8 10 9 9 11 12 11 11 12 12 12 13 12 13 14 15 17 17 19 21 21 19 18 18 20 21 22 22 22 26 24 26 27 28 29 29 30 30 29 29
8 6 8 8 9 10 9 10 10 11 11 12 11 12 13 13 14 13 15 17 19 21 20 17 16 16 17 19 19 19 16 13 24 21 24 24 26 27 27 28 29 29 29
8 7 8 9 9 9 9 9 10 10 9 11 13 12 13 14 13 14 17 18 19 17 16 15 14 14 16 17 17 18 19 18 18 19 20 22 23 25 25 27 28 28 27
10 8 8 9 8 9 9 9 9 10 10 9 13 13 13 14 13 12 18 20 17 16 15 15 14 15 16 15 15 16 14 16 17 13 17 19 22 24 25 25 26 27 26
12 11 9 8 8 6 6 8 9 10 11 9 12 14 13 14 13 14 19 17 15 14 13 13 13 14 14 13 13 12 12 12 12 13 16 19 21 23 24 25 27 28 27
13 13 12 8 7 7 6 8 10 10 10 10 13 13 13 15 12 14 19 16 14 13 12 12 11 12 12 11 11 9 8 10 11 14 16 18 20 21 22 25 28 28 26
14 13 12 12 9 9 8 8 9 10 11 11 14 15 12 13 12 12 18 16 15 14 13 11 10 9 11 11 9 7 5 8 9 11 14 15 17 18 21 24 26 27 24
16 15 13 12 12 10 10 10 8 10 12 12 12 12 11 11 10 12 17 16 14 12 11 9 8 7 8 8 8 4 3 4 6 9 12 14 16 17 19 21 24 26 26
17 17 16 12 11 12 11 9 10 11 13 13 13 13 10 8 9 11 14 14 13 11 10 8 6 6 7 7 5 3 1 2 5 9 11 11 13 14 16 20 22 26 28
20 18 17 16 13 13 12 11 11 11 13 14 14 13 12 10 9 9 10 12 12 11 10 9 8 7 8 8 6 5 6 6 6 8 10 12 13 12 13 17 19 24 27
22 19 19 18 16 15 14 14 13 12 12 14 16 16 14 13 12 11 11 11 11 11 11 11 10 10 10 9 9 9 9 11 10 10 11 12 14 13 12 14 17 20 25
25 22 20 21 19 17 15 13 13 12 12 13 14 17 17 16 15 14 14 13 14 14 14 14 14 13 12 11 12 12 13 14 14 12 12 13 15 13 11 12 14 18 22
27 24 23 22 22 19 18 16 14 13 12 12 12 14 16 17 17 16 16 17 16 17 17 17 17 17 18 18 17 16 18 18 18 18 16 15 15 15 12 12 13 17 20
29 28 26 23 22 21 20 18 17 15 14 12 12 11 13 14 16 18 19 19 19 20 20 20 21 21 21 22 21 21 20 22 24 21 20 18 17 14 15 13 13 16 18
31 30 27 26 24 23 22 21 20 18 17 16 15 13 12 11 12 14 16 18 19 21 23 23 25 26 27 26 25 24 23 23 24 28 23 22 21 18 17 14 16 15 17
36 34 32 29 27 26 25 25 24 23 21 19 18 17 16 15 14 13 13 13 15 18 20 22 23 25 26 26 24 25 24 24 25 27 25 22 25 20 19 17 18 18 17
40 37 37 35 33 31 30 29 28 26 24 22 21 20 21 21 20 18 18 16 16 15 18 20 20 22 21 19 18 18 19 22 21 23 23 23 23 23 21 20 18 18 18
43 42 41 39 37 36 35 35 34 30 27 26 26 26 24 24 24 25 23 21 20 20 21 19 15 14 14 15 17 17 19 18 19 20 21 23 24 23 23 22 22 21 20
45 42 42 41 39 38 40 39 38 36 32 28 29 28 28 26 27 29 28 27 24 26 27 23 21 19 17 19 21 21 23 19 17 18 25 24 25 24 25 22 25 25 25

GFSMA_500_spd_075.txt.gz
Wind_Speed
12 12 12 13 14 13 14 13 13 14 13 13 12 12 13 15 16 17 17 16 16 15 16 17 18 19 20 19 20 22 22 20 20 21 22 23 24 23 24 27 28 27 27
12 12 12 13 14 13 13 14 14 15 14 14 13 12 12 15 15 15 15 14 14 15 16 17 18 19 19 19 22 21 21 22 22 22 23 25 24 25 26 27 27 28 27
10 10 12 12 12 11 12 13 14 16 15 15 15 15 14 15 14 13 13 12 12 15 19 18 18 17 18 20 21 22 23 23 23 23 23 24 25 25 26 27 26 26 27
10 10 8 11 10 9 11 12 13 14 16 15 14 14 13 14 14 13 13 12 14 17 19 19 18 18 20 20 22 23 24 24 24 24 25 25 25 26 27 28 27 26 26
9 10 8 9 9 9 9 11 12 13 14 15 15 15 14 11 12 13 13 15 18 19 19 19 19 20 20 22 24 25 23 24 24 24 25 25 26 27 27 27 26 26 26
6 8 9 8 8 8 9 10 10 12 11 14 15 14 15 14 14 14 16 18 18 19 20 20 19 19 22 23 23 22 22 23 23 23 24 24 26 27 27 26 25 26 26
6 7 8 8 8 7 5 7 8 9 9 10 12 14 14 14 15 15 15 14 17 21 21 19 18 21 22 22 22 22 22 21 21 21 23 24 25 26 26 26 27 26 27
7 7 8 8 8 9 7 6 7 7 8 9 9 10 14 15 14 13 13 16 19 21 19 18 18 20 20 20 20 21 21 19 19 19 21 22 23 24 25 27 27 26 26
6 5 7 8 7 7 8 8 8 7 8 9 10 11 10 13 15 15 15 17 20 19 17 15 16 17 17 15 14 12 16 16 15 16 18 20 22 23 24 26 27 26 27
5 4 6 6 7 7 7 8 9 8 7 9 10 12 11 11 8 18 18 19 18 16 14 13 14 14 15 13 12 13 15 12 12 14 18 19 21 23 25 26 26 26 26
6 6 7 7 8 8 7 7 9 8 6 9 11 12 12 11 13 9 20 19 15 13 12 12 12 13 14 14 12 11 10 8 9 12 15 17 19 22 25 26 28 27 25
7 7 9 9 8 8 7 7 8 8 8 7 12 12 11 9 13 17 16 14 13 12 12 11 11 12 12 11 9 9 8 6 7 10 13 16 17 20 23 25 28 29 26
8 8 8 8 10 9 8 8 8 8 8 8 11 12 12 9 11 16 16 17 13 12 12 11 10 11 11 8 7 5 5 5 7 10 12 14 16 16 19 22 25 28 28
12 10 9 7 8 10 8 7 8 8 10 9 11 12 11 8 9 16 16 15 14 13 12 11 10 9 10 8 6 3 2 4 7 9 11 14 14 15 17 20 23 26 27
9 12 11 9 8 8 10 10 10 10 10 10 11 11 9 9 9 16 18 14 11 9 10 9 9 9 10 8 6 2 1 4 6 8 12 14 15 14 14 17 21 24 25
15 11 13 11 10 10 9 10 11 12 11 10 10 11 10 7 9 12 16 15 13 11 10 8 8 9 10 9 7 5 5 5 9 10 12 14 15 15 14 15 18 21 24
18 17 16 14 11 12 11 11 12 12 12 12 12 12 11 10 9 9 11 13 13 13 11 9 8 8 10 10 10 8 9 10 8 12 12 15 15 15 14 13 15 19 22
20 19 17 15 14 13 12 12 12 13 12 13 13 13 12 11 10 11 12 11 11 12 12 11 10 10 9 11 12 11 14 14 15 13 13 15 17 16 14 13 14 16 20
21 21 19 18 17 15 14 13 13 12 13 14 15 15 14 13 12 12 11 11 12 12 12 13 13 12 12 12 14 14 16 17 19 19 14 15 17 18 15 14 15 14 18
22 22 22 19 19 18 16 14 14 13 13 14 14 14 14 15 14 14 14 13 14 14 15 16 16 17 17 17 18 18 18 20 20 24 24 17 13 17 18 13 14 14 16
24 25 24 21 19 20 19 18 16 15 13 12 12 13 15 15 16 16 17 17 17 17 17 19 19 20 21 20 21 20 20 21 23 24 25 25 16 13 15 17 14 15 14
28 27 26 24 22 20 20 21 20 18 16 14 12 11 10 10 13 15 16 17 18 20 21 21 22 23 24 24 24 22 23 23 23 29 26 25 24 19 12 15 15 16 15
35 33 31 29 27 25 24 24 23 21 20 18 17 16 14 13 13 13 14 13 13 15 18 20 21 24 24 25 23 23 21 21 22 23 22 22 23 25 18 19 17 16 17
37 37 36 35 33 31 30 28 29 27 25 24 22 21 19 18 18 18 18 17 17 15 16 16 17 20 18 19 18 17 18 20 19 20 20 21 22 23 21 19 22 19 19
42 40 39 39 36 34 34 33 33 32 28 26 25 25 23 23 23 23 23 22 23 21 22 21 17 16 15 15 15 16 19 18 19 21 21 21 23 23 23 21 24 26 24
44 46 45 44 43 39 39 38 38 37 33 30 30 29 28 27 28 29 27 28 25 27 28 25 21 20 19 19 22 21 22 21 19 18 24 23 25 26 24 23 22 26 28

GFSMA_500_spd_078.txt.gz
Wind_Speed
13 14 11 9 15 14 17 18 15 14 13 16 16 15 17 19 19 19 19 19 19 20 21 23 23 23 22 21 21 21 21 21 21 21 23 22 23 24 25 26 26 26 26
14 14 12 9 11 13 13 20 15 14 14 16 16 16 17 18 18 18 18 18 17 19 21 22 21 22 21 22 22 22 21 21 21 23 22 23 24 24 24 25 24 25 26
12 14 12 11 11 13 15 16 13 16 15 16 16 16 16 16 17 17 17 17 17 18 21 20 20 20 21 22 23 22 21 21 23 22 22 23 24 24 24 25 25 25 26
8 14 11 10 11 13 13 11 15 15 16 15 16 16 15 14 15 16 16 19 20 20 19 19 19 19 23 23 22 22 22 22 22 22 23 24 24 24 25 25 26 27 26
7 8 9 8 9 12 11 12 14 15 14 16 14 14 13 13 14 14 19 19 21 19 19 19 19 21 23 22 21 21 21 21 22 21 22 24 25 26 26 26 27 27 27
7 5 7 6 7 10 10 10 11 12 13 14 14 15 16 14 14 16 18 19 20 19 19 20 20 22 20 21 20 19 19 19 19 20 21 23 25 25 26 26 27 27 28
6 4 5 6 7 8 9 9 8 10 12 13 14 14 16 19 18 18 14 15 19 19 18 19 20 20 19 18 18 17 17 17 18 19 20 21 23 24 25 27 27 28 27
4 5 5 5 6 9 9 8 8 9 9 11 12 10 12 17 17 16 16 16 19 18 17 18 19 18 18 15 16 16 15 14 15 17 18 20 22 24 26 27 27 27 26
2 1 4 5 6 6 8 8 7 8 9 9 11 14 8 11 17 16 18 16 18 16 16 16 17 16 15 12 10 13 11 11 13 14 15 18 20 24 28 28 27 26 25
2 2 4 6 6 6 7 9 7 7 9 9 10 11 12 12 12 14 19 18 16 14 15 15 13 13 11 7 6 9 8 9 10 12 14 15 19 24 27 29 28 26 25
1 1 2 4 4 6 6 7 8 7 7 7 8 11 8 9 12 16 19 19 15 11 11 12 11 10 9 9 10 7 4 5 7 10 10 13 17 21 23 27 28 26 24
3 3 3 4 4 3 5 6 6 8 8 10 10 9 7 5 12 10 15 14 12 10 9 9 9 9 8 5 5 4 2 5 7 9 13 15 15 17 20 23 27 28 26
6 4 5 5 3 3 4 5 6 6 9 9 9 9 9 5 11 12 14 14 12 10 8 7 8 8 7 6 4 1 2 4 7 13 13 15 16 16 17 20 25 26 27
11 9 8 7 6 5 4 4 6 7 8 9 12 11 11 9 13 15 10 10 9 9 10 8 7 7 7 5 5 2 2 4 9 12 14 17 16 16 16 18 21 25 26
13 8 7 7 6 6 7 6 7 7 9 9 11 11 11 12 8 15 16 12 7 5 4 6 6 7 8 8 8 6 5 5 9 12 15 17 18 18 17 16 18 21 25
12 16 11 7 6 5 7 7 6 8 8 10 10 10 9 8 9 13 15 13 12 11 10 8 7 7 10 11 10 10 8 7 10 12 14 16 17 19 18 17 17 19 22
13 14 3 11 9 7 6 6 6 8 10 11 10 11 11 11 9 10 11 12 13 13 9 8 9 9 11 12 13 13 13 11 10 12 14 17 18 18 18 17 17 18 19
14 13 12 14 13 7 6 6 7 8 9 11 12 13 13 12 12 11 11 12 13 13 13 12 10 11 12 13 15 15 16 16 15 12 14 16 17 20 17 17 17 17 18
17 15 15 14 12 10 9 9 9 8 10 11 12 12 12 13 13 14 13 13 14 13 14 14 14 14 14 14 14 17 17 18 21 21 18 17 16 18 21 15 15 15 15
18 17 16 15 13 12 11 12 12 12 12 11 12 13 14 14 13 13 14 15 16 16 17 16 16 16 17 18 16 19 19 19 21 25 26 21 19 17 18 21 15 16 16
21 20 20 19 17 15 16 16 15 14 13 13 13 14 14 15 15 15 15 15 15 16 17 17 17 18 19 18 21 19 19 20 23 26 24 25 22 18 17 21 19 15 16
24 23 22 23 23 20 20 21 20 18 15 14 14 13 13 13 14 15 16 16 16 17 19 19 19 20 21 20 21 20 20 20 20 27 24 21 20 18 14 18 22 19 17
29 26 26 26 26 26 25 24 24 22 20 20 18 16 14 14 13 12 13 13 13 14 16 16 17 20 19 20 18 18 18 18 18 19 17 17 18 19 18 16 21 19 20
34 30 29 29 30 29 29 28 27 26 24 24 22 20 20 20 18 17 17 16 16 16 17 17 16 16 12 14 13 13 16 17 17 17 16 16 19 18 17 18 19 20 21
34 34 33 31 31 32 33 32 32 31 30 28 27 26 26 25 24 24 22 20 20 21 21 21 19 18 17 17 17 15 18 17 17 18 20 15 16 18 21 19 19 22 24
36 35 36 36 34 32 35 36 37 36 34 32 32 31 31 29 31 30 26 25 22 24 24 25 22 23 22 23 23 22 23 21 21 18 25 20 19 21 21 24 24 23 25

GFSMA_500_spd_081.txt.gz
Wind_Speed
17 17 17 18 18 15 15 18 20 18 21 22 21 23 23 24 24 24 23 23 24 26 25 24 23 22 24 23 22 21 22 23 22 21 22 22 23 25 25 26 25 26 26
17 16 17 16 18 18 16 15 18 18 20 21 21 21 21 22 22 23 22 22 24 24 23 22 21 22 23 22 22 22 23 23 23 22 22 23 23 24 26 26 25 25 27
15 15 17 16 18 20 17 18 18 19 18 19 20 20 19 20 19 21 23 22 23 22 20 19 20 22 22 22 22 22 22 23 22 23 24 24 25 26 26 26 26 26 28
15 13 14 15 16 16 17 15 17 18 18 18 16 18 17 17 18 21 24 23 23 20 19 20 21 22 22 22 22 21 22 21 23 23 23 25 25 26 27 27 27 28 29
15 13 14 12 15 14 16 15 16 16 15 16 15 14 16 16 18 19 21 21 20 19 19 22 21 21 21 21 20 19 19 20 21 21 23 24 26 26 26 28 26 28 28
12 10 12 10 13 12 14 13 16 14 14 16 13 11 15 16 19 17 18 20 20 19 19 20 22 20 19 18 17 18 18 19 19 20 21 22 24 26 27 27 27 26 27
9 9 9 10 10 11 12 12 13 13 14 15 14 13 15 20 21 15 17 20 19 19 18 19 20 17 17 14 14 15 16 17 16 18 20 21 23 27 28 26 26 25 26
8 8 7 10 9 10 11 10 11 12 12 12 17 13 15 17 18 19 19 18 18 17 15 18 18 15 16 12 10 11 13 14 14 16 17 20 23 26 28 27 25 24 23
7 6 6 6 8 9 10 9 11 9 10 11 14 16 12 13 15 18 20 18 18 15 15 15 16 12 13 9 7 8 9 11 12 13 15 18 22 25 27 27 26 24 24
5 8 7 4 5 7 8 9 8 10 10 10 9 10 11 11 12 17 20 19 16 14 14 15 12 10 7 5 3 0 3 10 10 12 13 17 20 23 25 27 26 25 24
4 6 7 6 6 6 8 7 7 9 11 11 9 8 4 7 8 13 20 20 16 13 12 13 11 8 7 7 6 2 7 9 10 12 14 15 17 20 22 24 26 26 24
1 3 5 5 6 8 8 8 7 8 7 9 10 8 4 3 9 9 14 18 14 14 11 10 9 8 5 2 3 4 6 8 11 13 14 15 17 17 20 21 25 26 25
3 2 5 5 3 6 8 9 8 8 8 9 8 8 7 5 10 12 12 11 10 11 10 10 9 8 6 3 0 4 7 9 12 15 16 17 18 17 17 19 21 23 26
4 2 2 4 2 3 5 7 9 8 8 9 10 9 10 8 10 11 11 8 7 5 4 6 8 7 6 4 3 3 6 10 12 15 17 17 19 19 17 17 17 21 24
4 4 3 2 1 3 4 6 8 8 7 7 7 8 8 6 9 12 13 13 7 5 6 4 4 5 7 6 6 5 6 9 11 14 16 17 19 19 18 17 17 17 20
8 7 6 3 3 3 6 6 5 7 8 7 6 8 6 5 7 13 14 14 13 12 9 8 7 10 9 8 9 8 9 10 11 14 16 17 19 20 18 18 17 17 17
12 12 11 7 6 6 7 6 6 6 7 8 7 9 10 9 8 9 12 15 13 10 10 10 12 11 9 12 12 12 11 12 14 15 17 18 18 21 22 18 19 16 16
14 14 13 14 9 10 7 9 9 8 8 9 10 10 11 11 9 11 12 12 13 14 13 12 10 11 14 13 14 16 15 15 15 17 17 19 21 20 23 21 18 18 16
12 15 16 14 14 14 10 10 8 9 10 11 12 12 13 13 13 12 11 13 15 14 14 15 15 15 16 17 16 17 17 18 16 19 18 19 20 21 21 25 22 18 18
16 16 18 18 17 13 12 13 10 10 11 12 12 14 14 14 14 14 15 15 15 15 17 17 18 17 17 18 18 19 20 20 20 21 21 21 20 20 18 20 21 17 18
20 19 19 20 19 19 18 16 14 14 13 13 13 13 15 16 16 17 17 17 17 17 18 19 20 20 21 21 22 21 20 21 22 23 22 21 17 16 12 15 19 18 19
24 22 20 20 20 20 19 19 18 18 17 15 14 14 14 16 17 18 19 19 18 19 19 19 20 21 23 21 21 19 18 19 20 23 18 17 11 14 15 15 18 16 16
27 27 26 25 23 23 24 23 23 23 21 20 18 17 16 17 17 17 19 19 19 19 18 18 18 19 17 18 15 16 16 16 17 19 13 15 14 16 14 13 14 18 16
30 31 29 28 26 26 27 27 27 26 26 25 24 23 21 21 22 20 20 18 18 17 17 15 16 16 13 14 12 12 13 13 15 18 12 12 18 17 15 15 16 19 20
33 36 35 31 29 29 30 30 31 29 29 28 28 28 27 26 26 25 23 22 22 21 21 20 19 19 18 17 17 16 19 17 18 22 21 14 17 18 19 20 22 20 22
35 34 35 34 34 34 33 33 34 34 32 32 32 31 31 31 32 31 28 28 24 26 25 22 21 21 21 22 24 23 25 24 23 24 27 20 22 21 22 22 21 25 27

GFSMA_500_spd_084.txt.gz
Wind_Speed
13 16 22 19 18 20 20 20 22 22 22 21 25 25 24 25 24 25 27 28 27 26 24 22 22 22 21 22 22 21 22 19 20 23 24 25 26 26 26 25 25 26 27
14 17 19 19 17 18 20 21 21 20 20 22 23 22 22 23 23 24 27 27 25 23 21 21 21 20 21 22 22 22 21 21 22 24 26 27 28 27 27 25 25 27 29
15 16 20 20 18 18 18 19 20 19 18 20 21 20 19 21 22 24 25 24 22 21 20 20 20 20 21 21 21 21 21 22 23 24 25 28 27 27 26 25 26 27 30
15 16 17 16 15 16 17 18 19 18 17 17 17 18 18 18 21 22 24 23 21 20 21 20 19 19 20 20 20 20 20 21 23 24 26 25 25 25 25 24 26 27 29
15 14 18 15 16 16 15 15 16 15 16 15 17 15 17 18 18 20 20 21 20 19 19 21 19 19 18 18 18 18 18 20 22 23 23 24 24 24 25 24 24 26 27
14 12 14 16 14 16 16 15 16 13 13 13 13 13 15 19 15 17 19 21 20 20 18 19 19 18 17 16 15 16 17 18 19 21 23 23 24 24 24 23 22 24 25
12 14 12 14 14 14 14 14 15 14 13 13 14 13 14 18 15 17 20 19 18 18 17 17 18 17 16 13 13 14 14 15 17 20 23 24 24 24 25 24 23 23 25
9 9 11 13 12 12 12 12 12 14 11 12 15 14 17 14 15 17 18 19 18 18 16 15 14 13 14 11 12 12 12 13 16 20 20 22 25 25 23 23 23 22 24
4 7 8 10 12 11 10 12 10 12 12 12 15 15 13 14 14 16 18 17 17 18 15 13 11 9 10 9 7 8 11 12 16 17 17 18 22 24 23 24 23 22 23
4 5 6 8 8 10 9 8 9 10 12 13 11 10 9 8 12 17 18 16 15 14 13 12 10 7 3 2 2 5 7 11 13 16 17 16 18 20 22 22 24 24 22
4 4 5 8 9 10 9 8 8 9 10 12 11 9 6 7 10 17 18 18 16 15 12 11 10 6 3 6 3 2 7 9 11 15 16 18 18 16 19 20 23 24 23
5 5 5 5 6 8 10 8 9 9 9 8 9 9 5 5 5 14 17 14 13 15 14 11 10 6 3 3 2 4 6 8 11 15 16 17 19 18 16 17 19 21 22
6 7 7 6 6 6 9 10 9 9 8 7 7 7 5 5 9 11 13 10 8 7 8 8 8 6 3 2 2 4 6 7 10 14 17 17 18 18 18 17 18 18 19
6 7 8 8 8 6 8 10 11 9 9 8 6 6 5 6 10 12 12 7 5 4 6 6 6 6 5 6 6 6 8 9 11 14 16 17 18 18 18 18 18 19 17
10 7 10 10 10 10 7 9 10 11 11 10 10 8 6 4 10 14 14 10 8 5 5 5 6 8 10 9 8 9 10 11 12 14 16 18 18 19 18 18 18 18 18
13 11 11 10 8 9 10 9 12 12 12 11 10 10 7 6 8 14 16 15 12 10 9 9 11 11 8 11 12 11 11 13 14 16 18 20 20 21 20 18 17 17 17
16 13 16 12 10 8 9 10 10 11 12 12 12 12 10 10 10 11 14 15 14 12 10 12 13 10 10 14 13 14 13 16 17 18 20 23 24 23 23 22 17 17 17
18 19 16 17 11 11 10 11 12 13 14 13 14 14 12 11 11 11 13 14 16 16 15 16 16 14 16 13 11 15 15 18 18 20 20 23 25 25 24 22 19 16 15
22 21 20 18 15 15 13 13 14 13 14 15 15 15 15 14 13 14 14 14 17 18 17 17 17 17 18 15 15 17 19 18 18 19 22 23 22 23 23 21 20 16 16
24 22 22 20 20 20 16 16 17 16 16 18 17 17 17 17 17 16 17 17 17 17 18 18 20 20 19 19 17 20 19 20 23 24 23 23 22 21 15 16 18 17 16
26 25 24 23 23 21 21 22 21 18 18 19 19 19 19 20 19 19 20 20 18 18 19 20 21 22 23 21 19 18 18 21 23 24 23 23 18 16 12 13 16 14 14
32 29 28 26 26 27 27 26 24 23 22 22 20 19 19 21 22 23 23 22 21 21 21 21 21 22 24 21 19 19 19 19 21 22 18 18 11 16 14 15 16 16 13
37 32 33 31 29 29 30 27 26 26 25 24 22 21 21 21 22 23 24 24 23 24 25 24 23 24 23 21 14 16 16 17 18 19 15 19 13 16 18 18 17 19 19
42 38 36 34 31 31 32 33 31 29 28 27 26 25 23 24 24 24 23 22 22 22 23 21 20 22 18 18 14 13 16 17 19 20 14 14 19 19 21 20 21 21 22
33 37 35 35 33 34 34 34 35 33 31 30 31 29 29 28 28 27 25 24 23 22 23 22 22 21 20 20 21 20 22 21 23 25 23 17 21 22 23 26 25 26 26
33 34 37 39 35 36 38 37 36 35 34 34 35 34 34 33 34 33 29 29 25 26 28 26 24 24 24 24 26 25 27 27 26 25 31 24 25 23 23 26 28 28 27

GFSMA_500_spd_087.txt.gz
Wind_Speed
13 16 19 20 20 20 18 17 21 22 21 21 22 24 23 24 28 29 28 26 25 24 23 22 22 21 20 21 22 22 23 24 24 25 24 23 22 23 24 25 28 29 30
13 14 18 19 19 20 19 19 19 20 21 20 20 22 21 22 26 27 26 25 23 23 22 21 21 20 21 22 22 22 23 24 24 25 24 24 23 24 24 26 28 31 31
15 15 18 19 18 18 18 17 18 19 17 18 19 18 19 21 25 26 25 23 21 21 21 21 20 19 20 20 21 21 22 23 24 24 23 23 24 23 24 26 27 31 32
14 14 15 17 16 17 18 17 17 18 15 15 15 16 15 18 21 23 23 21 21 20 21 20 19 20 20 19 20 21 21 22 23 24 23 23 23 22 22 24 27 28 31
13 13 14 15 15 15 15 14 15 15 15 13 13 16 16 16 17 19 20 19 19 19 19 19 19 19 18 18 18 18 19 21 23 24 23 22 23 23 22 22 24 26 29
13 12 11 14 14 15 15 14 14 14 14 13 12 15 15 14 15 17 18 19 18 18 17 17 17 17 17 16 15 16 18 20 21 23 24 24 23 23 22 23 23 26 27
12 12 10 11 12 12 13 13 13 12 11 11 12 15 14 14 15 16 16 17 17 15 15 14 15 15 15 14 15 16 17 17 19 20 22 23 24 22 23 23 24 25 26
10 11 10 9 10 9 10 12 12 12 13 10 11 13 13 13 14 15 15 14 14 14 14 13 12 12 12 11 13 15 14 16 19 20 18 20 22 23 22 23 25 23 24
8 10 11 10 9 10 10 12 11 10 11 10 11 12 9 10 13 14 13 12 11 11 13 12 9 7 8 6 9 9 12 14 17 18 19 20 19 21 21 22 22 24 23
7 7 8 8 7 9 10 9 12 10 10 11 10 8 7 5 10 14 13 12 11 11 11 11 9 5 2 2 6 7 9 12 16 18 19 20 19 19 18 19 21 20 22
7 9 7 9 8 8 8 9 10 11 11 12 12 9 7 5 8 11 13 11 10 10 9 8 8 4 5 6 6 5 7 10 14 16 18 20 20 20 19 18 19 19 19
6 8 9 9 7 8 7 8 10 11 11 11 12 10 9 8 8 12 12 9 7 7 7 7 5 2 4 5 3 5 6 9 12 15 18 19 19 20 20 19 20 19 18
7 8 8 9 9 10 9 8 7 9 9 10 9 7 9 12 11 14 13 9 6 6 5 5 5 2 2 2 4 6 6 8 11 14 17 19 19 20 20 19 20 20 19
8 9 10 11 10 11 11 11 10 8 9 9 9 6 6 13 14 15 14 11 8 6 5 5 6 5 7 7 7 8 10 11 13 15 17 18 19 20 20 20 18 19 19
12 11 11 12 13 11 12 13 13 12 11 11 11 8 6 6 13 18 17 13 11 9 8 8 9 9 9 9 12 11 12 14 16 17 19 20 21 20 21 20 19 18 18
15 16 13 13 12 13 13 14 15 15 14 12 12 12 10 8 10 17 20 18 15 12 11 12 12 13 11 13 12 12 13 15 16 18 20 21 23 24 24 23 20 18 17
20 15 17 16 14 14 15 14 15 17 17 15 15 15 14 13 11 14 18 19 17 14 14 14 15 13 12 15 13 14 15 17 19 20 22 22 23 26 26 26 20 17 15
22 20 21 19 18 16 14 15 15 17 17 17 17 18 16 15 15 14 17 19 18 16 15 16 16 16 14 15 12 15 18 18 19 19 20 22 24 24 26 24 20 15 15
22 23 24 23 21 20 19 18 18 18 18 19 19 20 18 17 18 16 15 17 18 19 19 18 18 16 17 17 15 16 18 19 19 22 22 21 22 22 21 19 18 17 17
24 25 26 26 26 25 23 21 21 21 21 20 21 21 21 21 20 20 18 19 19 19 19 19 19 20 19 18 17 19 22 22 25 26 23 21 20 19 14 16 18 17 17
29 29 27 27 27 28 27 25 23 23 22 21 21 22 23 23 23 23 22 21 20 19 19 21 22 22 21 21 20 20 20 23 24 24 24 22 18 15 12 14 17 18 14
34 35 34 32 32 31 31 28 27 25 24 23 24 23 24 25 26 25 24 23 22 21 22 22 23 23 24 22 19 18 20 20 20 23 17 22 15 15 13 15 17 16 17
41 39 37 36 33 33 33 32 29 27 27 27 26 25 24 26 27 27 27 26 24 24 23 23 21 22 22 23 19 18 15 15 17 21 15 19 16 14 16 20 19 18 19
40 45 42 41 40 37 34 34 33 31 31 30 29 29 28 27 28 27 27 27 27 27 26 25 23 24 20 18 15 14 16 19 20 23 21 16 21 21 21 21 22 22 22
39 42 44 48 47 44 40 39 37 35 35 33 33 33 32 31 32 31 28 27 26 25 26 25 22 21 20 19 19 18 21 23 24 27 28 24 22 21 24 26 25 26 26
25 30 35 38 45 48 43 42 37 37 39 38 37 36 37 36 36 35 31 29 26 26 30 27 24 22 22 22 24 24 25 25 24 23 29 27 27 24 23 27 27 25 27

GFSMA_500_spd_090.txt.gz
Wind_Speed
14 14 18 18 20 21 20 19 20 22 22 21 22 25 28 28 28 27 27 26 25 24 24 24 23 22 23 24 24 24 23 24 24 24 23 22 23 24 26 28 30 27 25
13 14 16 17 17 18 18 18 19 19 20 20 20 24 27 26 26 26 26 25 23 23 23 24 23 23 24 23 23 22 23 24 24 22 22 21 21 23 24 27 29 28 26
14 14 14 16 16 16 16 17 18 18 17 18 19 21 23 24 24 23 23 23 22 22 22 22 22 23 23 22 21 22 23 24 23 22 22 20 22 21 22 26 27 28 27
14 12 13 14 14 15 15 16 16 16 16 16 17 19 20 21 21 21 21 20 21 21 22 22 21 21 21 20 20 21 22 23 23 22 22 22 22 20 22 24 26 28 28
11 9 10 14 14 11 12 15 14 14 14 15 14 18 18 17 16 17 19 19 19 19 21 21 20 19 19 18 20 20 21 21 21 22 23 22 22 22 22 24 25 27 27
10 10 11 13 14 12 12 10 11 11 13 13 14 16 17 16 14 13 14 15 16 17 18 18 18 17 18 18 19 20 19 19 20 20 21 22 22 23 23 24 24 25 25
7 10 9 10 11 11 11 11 10 9 10 12 13 14 15 14 14 13 14 13 12 14 15 15 14 14 15 16 17 17 18 21 22 20 19 20 20 22 23 23 24 24 24
8 7 10 8 8 9 11 10 10 9 9 11 12 13 12 14 14 12 12 12 11 10 12 11 10 11 12 14 12 16 18 19 19 20 21 21 18 19 21 21 24 24 24
9 7 8 9 7 8 10 11 10 10 10 10 14 14 11 13 14 13 11 10 10 8 8 8 7 6 8 10 10 13 16 16 20 21 22 23 21 20 20 21 23 23 24
9 9 8 8 9 7 8 8 9 10 9 10 13 13 11 10 13 13 11 9 8 7 7 7 5 3 4 4 6 11 12 14 18 20 22 23 22 21 21 21 22 21 21
10 11 9 7 8 7 8 8 7 9 9 9 12 12 11 9 11 12 11 9 8 7 7 4 3 4 4 5 6 9 10 13 16 19 20 21 22 22 22 21 21 21 20
10 12 12 11 10 9 8 8 8 8 11 10 10 11 11 10 10 12 11 9 7 5 3 5 3 1 2 3 4 7 9 11 13 14 17 20 22 22 22 21 20 21 21
10 11 12 12 12 12 11 9 10 9 9 10 7 7 12 13 12 14 14 11 8 6 4 4 4 4 3 3 5 6 8 10 12 14 15 17 20 22 21 21 20 19 19
10 11 11 12 12 13 12 12 11 11 10 9 8 5 7 13 14 15 15 12 10 8 7 7 6 7 7 7 6 6 9 11 13 15 18 20 21 21 21 21 21 18 16
12 12 13 12 13 13 13 14 13 12 12 11 10 9 5 10 13 17 17 15 11 9 9 9 9 10 11 9 9 9 11 12 14 17 18 20 22 22 23 22 22 18 15
15 15 13 14 14 13 13 14 14 14 13 13 12 12 11 8 12 16 20 18 15 13 12 12 12 13 10 10 12 12 13 14 15 17 19 21 22 24 23 24 21 16 14
20 14 17 17 16 17 16 15 16 16 15 14 14 14 14 13 12 16 19 20 18 16 15 14 14 14 12 12 12 13 15 16 16 17 16 18 21 23 22 22 18 17 14
20 19 19 20 20 18 18 18 17 17 16 17 17 17 17 16 16 16 19 20 21 20 17 17 16 16 14 12 12 13 15 17 16 18 19 19 21 21 19 16 15 16 17
23 23 22 23 22 21 20 20 20 19 19 18 19 20 18 17 18 17 17 20 21 21 20 19 18 18 16 15 14 13 14 17 18 18 19 20 20 17 14 12 13 15 15
25 25 26 25 24 24 23 22 21 22 21 21 22 22 21 20 20 19 18 18 18 19 19 19 19 18 18 17 14 14 16 18 21 22 20 20 17 13 12 13 13 14 13
28 29 29 29 28 28 29 28 25 24 24 23 23 24 23 22 22 22 22 21 20 21 20 19 19 19 20 19 16 15 16 18 23 23 21 17 14 12 10 11 13 16 14
34 33 31 32 30 31 33 30 28 27 26 26 26 26 25 25 26 25 25 24 23 22 22 21 21 21 22 20 17 16 16 16 18 22 13 15 10 12 11 12 14 15 16
40 41 38 35 33 33 33 34 33 33 30 29 29 28 27 27 27 27 26 26 24 25 25 24 23 24 23 24 20 19 15 14 15 17 14 16 16 15 15 17 19 19 18
45 43 41 42 39 36 34 35 35 35 35 33 33 32 29 30 30 29 27 27 26 26 26 26 25 26 24 24 19 13 13 15 17 20 16 15 19 19 20 23 20 23 23
49 41 45 45 45 44 41 40 39 39 38 38 35 35 33 32 32 30 27 27 27 28 30 28 27 25 24 21 19 16 19 19 21 22 23 17 22 17 17 22 24 21 23
23 32 47 53 48 49 48 47 49 43 44 43 40 38 36 35 35 34 31 30 29 31 33 31 28 26 26 25 25 25 26 24 23 19 25 19 20 21 16 21 24 26 24

GFSMA_500_spd_093.txt.gz
Wind_Speed
15 16 20 19 20 18 17 18 19 20 22 23 26 27 27 26 25 25 24 23 22 22 23 24 25 24 23 23 23 23 22 21 22 20 20 20 22 22 23 25 22 22 23
14 15 18 19 18 17 15 16 17 19 21 24 28 28 26 24 23 22 23 21 21 22 23 24 24 22 22 22 22 22 21 22 22 22 20 20 22 21 23 24 23 21 23
14 14 15 17 17 17 15 15 17 17 19 23 26 25 24 23 22 20 20 20 20 22 24 24 22 21 21 21 22 21 22 22 21 23 23 23 20 20 22 23 24 23 21
13 12 12 13 15 15 14 15 17 18 18 19 23 22 21 20 20 20 19 19 19 21 22 22 21 20 20 22 21 22 22 19 22 21 24 23 23 22 22 22 23 24 22
13 12 10 11 13 14 13 15 16 16 17 17 19 20 18 16 15 15 15 15 17 19 20 20 20 20 20 21 23 23 21 20 20 20 21 22 23 23 24 22 23 23 24
11 11 10 9 11 14 12 13 14 13 15 16 16 19 16 14 13 14 13 14 15 17 17 17 18 18 19 20 20 18 22 22 21 20 18 19 21 23 24 24 23 23 24
10 10 10 9 8 9 10 11 10 11 12 15 15 16 16 15 14 14 14 14 14 13 13 14 14 15 16 17 17 19 21 21 21 22 21 19 19 20 21 22 22 23 23
10 10 10 8 8 7 7 7 8 9 9 12 13 14 14 15 15 14 13 13 12 11 10 9 10 10 12 13 14 17 19 19 20 22 22 22 21 20 20 20 20 21 22
9 10 9 9 8 8 8 8 7 7 9 9 12 12 14 14 15 14 14 13 12 11 9 6 6 5 7 9 10 14 15 17 18 21 22 22 22 22 21 22 21 20 20
8 9 10 9 9 8 7 7 7 7 8 10 11 10 10 14 14 14 13 12 11 10 9 5 3 3 5 5 8 11 12 13 16 18 20 22 22 22 22 21 20 20 19
8 8 9 10 10 10 8 7 8 8 8 9 11 11 10 12 13 13 12 11 8 7 7 6 3 2 3 4 5 7 9 10 13 16 18 20 21 22 21 21 20 19 19
10 11 10 9 9 9 10 10 9 9 9 9 11 12 11 11 13 13 13 11 9 7 5 6 5 1 1 0 2 4 6 9 11 13 15 17 19 20 22 21 21 19 17
9 13 12 12 11 10 9 10 11 10 11 10 9 9 11 12 13 14 14 13 11 9 8 7 7 5 5 4 4 5 6 9 12 14 15 17 18 20 22 21 21 19 15
11 12 13 13 13 12 11 10 10 11 12 12 10 7 8 13 14 16 16 14 12 10 10 10 9 8 8 7 7 8 9 10 12 13 15 17 19 21 22 21 19 17 14
13 13 13 13 13 12 13 13 13 12 13 13 13 11 7 9 14 17 18 16 14 12 12 11 11 10 10 8 8 8 10 11 13 14 15 17 20 21 21 20 16 15 13
14 13 12 13 14 14 12 13 14 14 13 13 13 13 12 10 12 14 19 19 17 14 13 12 11 11 10 9 10 10 10 11 11 12 15 17 18 19 19 17 14 15 14
18 16 15 13 14 15 14 14 15 15 15 15 14 14 14 13 12 14 17 21 19 17 15 14 13 12 11 10 10 10 11 12 11 12 15 16 16 18 16 13 12 13 13
19 18 19 17 17 16 15 15 15 16 16 17 16 16 16 15 15 15 16 18 20 20 18 16 15 14 13 11 12 13 12 13 13 15 17 17 16 16 13 11 11 13 13
22 23 23 21 19 18 19 18 18 17 17 18 17 18 18 17 17 17 16 16 18 19 19 18 17 17 17 16 14 13 12 13 15 16 16 16 14 13 11 10 10 13 13
27 25 27 26 25 23 23 23 21 19 18 19 19 20 19 20 20 19 19 18 18 19 18 19 20 20 20 19 15 11 13 13 16 18 16 13 11 11 11 11 10 12 13
31 29 29 28 27 28 26 25 24 21 21 20 21 22 22 22 22 22 21 21 20 21 20 19 19 19 21 20 16 14 13 14 18 19 15 8 7 7 7 8 10 12 14
33 33 33 33 31 29 29 29 28 26 27 26 24 25 25 25 26 25 25 24 23 23 23 23 22 22 22 21 18 16 15 15 17 22 11 11 5 8 7 9 10 12 13
36 37 38 38 34 30 30 31 31 30 30 29 28 28 27 27 26 27 26 26 26 26 25 25 24 25 24 25 21 20 18 18 18 19 14 13 10 9 10 13 13 15 15
27 38 42 42 37 36 35 33 33 32 33 32 31 32 31 30 29 27 27 27 27 27 27 27 27 27 27 28 27 24 23 22 20 19 15 14 19 16 14 16 16 16 18
21 18 31 41 42 40 41 41 39 36 34 35 35 37 35 35 34 31 30 29 30 30 30 28 28 28 29 29 29 26 25 24 23 23 20 16 19 15 16 19 19 18 19
13 15 17 19 28 36 45 46 43 42 41 40 41 40 43 39 38 37 35 34 34 33 32 32 31 29 29 29 29 27 26 26 26 24 28 23 19 22 16 21 22 24 22

GFSMA_500_spd_096.txt.gz
Wind_Speed
17 18 18 18 17 17 16 16 17 19 23 26 28 26 24 23 22 20 20 19 20 21 22 22 21 21 21 21 22 22 21 20 19 18 18 20 20 21 22 20 19 21 21
17 17 17 17 16 16 16 17 19 21 25 28 27 26 24 22 21 20 20 20 20 21 22 21 20 21 21 22 22 22 22 22 22 21 20 19 19 20 21 22 21 20 21
16 16 17 16 15 15 15 17 20 23 24 26 26 24 23 21 20 19 19 20 21 21 20 19 20 21 22 22 24 23 22 20 21 21 22 21 19 20 21 22 23 22 19
12 13 15 15 16 17 15 16 18 21 22 22 22 21 19 18 18 18 18 19 20 19 18 19 20 21 22 24 22 21 21 19 18 19 20 21 20 21 21 22 22 23 24
11 9 11 12 13 15 15 15 16 19 20 20 21 19 17 16 16 16 17 18 18 18 18 19 19 20 22 22 20 22 22 21 18 16 18 19 19 21 21 21 22 22 23
10 10 9 9 9 11 12 13 14 15 17 17 17 17 15 15 15 15 17 17 17 17 17 16 17 17 19 19 19 21 22 21 20 20 19 19 19 19 20 20 20 20 21
9 8 8 9 10 8 9 10 11 13 13 14 15 14 14 15 15 15 15 15 15 14 14 13 13 14 15 15 16 17 19 19 19 21 22 22 21 20 20 20 19 18 19
8 8 8 7 7 8 9 9 9 10 12 12 12 11 12 14 15 14 15 14 12 12 12 10 9 9 10 12 11 14 16 16 18 20 21 21 21 21 20 20 20 19 18
8 8 7 6 5 5 6 7 8 8 10 12 11 11 11 13 14 14 13 13 12 10 10 8 6 5 6 6 7 10 12 14 16 17 19 20 21 22 22 21 20 20 20
9 9 8 6 5 5 5 6 7 9 9 11 10 10 9 11 11 13 13 12 11 10 8 6 3 2 2 2 3 6 8 11 13 15 17 19 20 21 22 21 20 19 18
7 7 8 10 7 6 6 6 5 6 8 9 11 9 9 11 11 11 12 11 9 7 7 6 3 1 3 2 1 4 6 8 11 14 16 17 19 19 20 21 20 18 16
7 9 9 8 9 9 8 7 6 6 7 8 9 9 8 10 11 12 12 12 10 9 8 8 6 4 4 3 4 6 8 10 13 16 16 18 17 18 20 21 20 17 15
8 8 9 10 9 8 9 10 9 8 8 8 7 8 10 10 12 13 14 12 12 11 10 10 10 8 7 5 6 7 9 12 14 15 17 18 18 20 21 21 19 16 14
9 8 9 10 10 10 10 8 10 11 10 10 8 6 7 11 13 15 16 15 14 13 12 11 12 10 9 9 9 9 9 11 13 15 16 17 19 20 20 19 17 16 15
10 9 9 10 11 11 11 11 10 11 12 11 11 10 8 8 14 15 18 19 16 15 14 13 13 12 11 10 10 10 10 10 12 13 14 17 19 19 17 15 14 16 16
13 12 11 10 11 11 11 12 12 12 12 13 13 13 12 10 11 13 16 20 19 17 15 13 13 13 12 11 9 10 10 10 10 12 14 16 17 17 16 13 14 15 14
15 14 13 12 13 12 11 11 12 12 14 15 14 14 14 14 13 13 15 18 21 20 17 14 13 12 11 10 10 11 12 12 12 12 15 15 15 14 13 10 11 13 12
18 18 17 16 16 13 13 13 13 13 14 15 15 15 15 14 15 15 14 16 18 21 21 19 17 15 14 14 12 13 12 12 12 14 15 15 13 12 12 10 8 11 12
24 22 21 19 18 15 15 15 15 15 15 16 16 15 15 16 15 16 17 15 16 18 20 20 21 20 19 19 17 15 13 11 14 15 14 14 13 10 10 11 8 9 11
28 26 24 23 22 21 21 18 17 19 18 18 18 18 18 18 17 18 19 19 18 18 17 18 19 21 20 21 17 14 13 13 15 17 16 11 10 8 9 9 10 9 12
32 29 27 26 26 25 24 24 22 23 22 22 21 22 21 21 20 19 20 20 20 20 20 20 20 20 22 21 19 17 14 15 18 19 17 10 6 5 6 10 13 12 11
33 33 30 30 30 28 27 27 25 24 24 26 25 22 23 23 21 22 23 23 23 23 22 22 22 23 24 24 22 20 17 17 18 22 15 14 6 6 7 11 13 15 15
33 33 32 33 32 32 31 30 31 27 29 28 29 27 26 25 23 22 23 24 25 26 27 26 25 26 25 27 25 24 21 21 21 24 22 16 11 9 11 13 13 15 15
20 16 26 34 34 35 35 34 34 31 30 31 30 29 29 28 25 27 28 28 28 28 28 28 27 28 28 27 27 26 26 25 24 25 24 20 19 15 14 13 13 12 14
16 21 16 22 30 36 38 39 38 38 35 35 32 32 31 31 31 31 32 33 32 32 31 31 31 30 30 29 28 27 28 27 26 26 27 22 24 22 18 19 18 17 16
15 11 14 13 12 14 24 34 39 42 39 39 38 37 35 33 33 34 35 34 34 36 36 36 34 33 33 32 32 30 29 28 26 23 30 29 27 26 24 25 25 25 23

GFSMA_500_spd_099.txt.gz
Wind_Speed
19 20 19 19 19 18 17 16 18 21 22 23 23 22 21 20 18 19 21 21 21 21 21 21 22 22 23 23 22 20 19 18 18 18 18 20 21 22 21 19 18 19 18
18 20 19 18 18 18 18 18 23 25 26 25 24 22 20 19 19 19 20 20 21 20 21 22 22 22 23 23 22 21 20 20 19 19 19 21 20 20 20 21 21 19 17
15 16 16 15 16 17 18 20 24 25 25 25 23 21 19 19 19 19 19 20 19 21 20 21 21 21 22 21 19 18 18 18 19 19 19 21 20 21 21 20 20 20 20
14 13 14 14 15 16 16 19 22 23 23 23 21 20 19 19 20 20 19 18 18 19 19 19 20 21 20 19 19 19 18 16 16 16 18 19 19 19 18 19 19 19 18
12 12 13 13 14 14 14 15 18 18 19 19 20 18 18 17 18 18 18 17 18 17 17 18 18 19 17 18 18 18 19 19 18 18 18 19 19 19 19 18 18 19 19
9 10 10 11 12 12 13 13 14 15 15 14 15 16 16 15 16 16 17 16 16 15 15 15 15 15 15 15 16 17 17 18 19 19 19 20 20 20 20 20 19 18 18
7 8 8 6 9 10 10 11 11 13 13 13 11 13 13 13 15 15 15 14 14 13 12 11 12 11 11 11 12 13 15 16 17 19 20 22 22 22 21 20 19 19 18
9 8 7 5 4 6 7 8 9 10 12 13 11 11 12 12 13 13 12 12 11 10 9 7 7 7 6 8 8 10 12 14 16 18 20 22 23 23 22 22 21 20 19
6 7 6 5 5 6 5 5 7 9 8 9 9 8 8 12 12 13 12 11 10 9 7 4 2 3 3 4 5 7 9 12 15 18 19 20 21 23 23 23 22 20 19
6 5 5 4 3 5 6 6 6 7 10 8 8 9 11 11 10 13 13 12 11 9 7 5 3 3 2 3 5 7 9 12 14 17 18 20 20 21 23 24 24 20 18
6 7 7 4 3 2 2 3 4 5 6 8 8 7 9 11 12 11 12 12 10 8 8 7 7 7 6 4 4 7 10 12 15 16 17 19 18 21 22 24 23 20 18
7 6 6 6 6 4 3 2 2 3 4 6 8 8 5 5 8 11 11 12 10 10 10 10 9 8 8 6 7 8 12 15 17 17 17 18 19 20 22 23 21 19 18
7 8 8 7 6 6 7 7 6 5 6 5 5 6 6 6 11 12 13 11 11 10 11 11 11 10 10 11 9 11 13 14 16 18 18 16 19 20 21 21 19 20 19
4 4 6 8 9 9 8 7 8 8 8 8 7 5 6 8 9 12 13 14 15 13 12 15 19 12 14 9 12 11 11 14 15 16 16 16 18 19 19 18 16 18 19
15 10 6 7 8 9 10 10 9 7 9 8 10 9 7 7 9 10 12 16 17 22 2 10 11 7 5 10 13 12 13 13 15 16 15 17 17 17 17 14 14 15 16
15 6 10 10 9 10 11 11 11 11 10 10 11 12 11 9 9 11 12 15 19 20 19 20 10 11 13 13 10 12 14 14 14 14 17 17 17 17 15 12 11 12 13
17 17 16 13 11 10 11 11 11 11 12 13 12 12 13 13 12 12 12 14 17 21 21 20 17 13 11 11 11 10 13 15 16 14 16 17 15 16 15 11 9 11 11
16 20 16 15 15 12 10 11 12 12 11 13 14 15 15 15 14 14 13 12 14 16 18 18 17 15 13 13 13 13 15 16 17 17 18 19 17 15 14 12 8 9 11
21 19 20 20 17 17 15 14 13 14 13 14 14 15 16 17 17 15 16 14 14 13 15 16 17 18 17 17 16 16 16 14 16 20 19 17 19 16 13 14 8 9 11
24 25 23 23 23 21 20 18 17 17 16 15 15 15 16 17 17 18 17 17 17 17 17 16 17 18 19 19 18 16 14 15 16 19 20 20 14 12 11 12 10 9 11
30 28 28 26 25 24 21 22 21 21 19 19 19 18 16 18 18 18 18 18 18 19 20 20 21 20 20 19 18 18 16 16 19 20 20 20 14 12 11 12 14 15 16
31 35 27 30 28 24 27 28 26 24 24 24 21 20 19 20 18 19 21 21 20 22 22 22 22 23 24 23 21 21 19 18 18 23 21 22 14 12 14 15 17 15 16
26 28 28 31 32 31 32 31 28 28 27 26 25 24 24 23 25 26 23 23 24 24 24 24 24 26 26 28 26 25 23 21 19 22 23 23 22 15 15 17 15 16 14
17 19 31 37 38 36 36 34 33 32 32 30 27 28 29 27 27 28 28 26 25 25 26 25 25 27 27 27 27 26 26 25 24 24 25 23 24 21 19 18 17 15 15
16 15 13 18 16 25 38 38 38 37 33 34 34 32 29 28 29 31 31 31 31 30 30 28 28 28 29 31 31 29 29 27 25 27 30 27 24 24 24 23 21 20 21
22 22 21 22 19 20 20 26 32 36 36 37 38 40 37 37 36 35 34 33 33 32 33 34 33 32 33 34 36 35 32 31 31 27 31 31 28 26 25 29 27 27 27

GFSMA_500_spd_102.txt.gz
Wind_Speed
23 22 19 23 13 15 16 19 21 21 17 20 19 19 20 18 19 20 21 21 20 21 22 22 21 20 20 19 19 19 18 19 18 19 20 20 19 18 17 16 16 14 13
23 16 15 23 20 17 17 21 17 25 22 23 20 19 19 19 20 20 20 20 20 20 21 20 19 18 18 18 18 17 17 17 18 19 19 19 17 17 16 16 16 15 15
21 16 18 20 20 20 19 16 21 23 22 22 21 19 20 21 22 19 19 19 18 18 19 18 18 17 17 18 18 17 15 16 16 17 18 18 18 18 17 17 16 15 15
16 17 18 18 18 19 21 23 21 21 22 23 20 18 18 20 20 20 19 17 17 15 18 17 17 16 16 18 18 18 17 17 18 19 19 20 20 20 21 20 18 18 19
15 15 16 16 17 16 18 16 18 17 18 19 19 19 17 17 17 18 17 15 15 14 14 16 15 14 15 16 17 17 17 18 19 19 20 21 21 20 20 20 20 20 19
13 15 13 16 16 13 12 15 15 14 14 14 13 19 16 15 16 15 15 14 13 12 12 13 12 12 12 14 14 15 17 18 19 20 20 20 21 20 20 19 19 19 19
10 12 14 14 10 10 10 11 11 9 12 11 10 13 15 13 14 14 13 12 10 9 7 8 9 8 9 10 11 12 15 17 19 20 21 22 22 23 23 23 22 19 17
8 7 8 12 13 12 11 10 8 9 8 10 7 3 10 13 13 13 12 11 9 8 6 4 4 5 6 8 8 11 13 15 17 19 20 21 21 23 24 25 24 20 18
5 4 4 4 11 7 9 13 6 6 7 4 7 8 3 6 11 13 12 11 10 8 6 3 1 2 4 4 8 10 12 15 17 18 19 19 21 23 24 26 25 20 19
3 2 5 5 7 5 10 10 5 5 4 5 3 5 8 8 10 11 11 11 9 8 7 5 5 6 6 5 4 8 11 14 16 18 18 18 19 21 23 25 24 21 19
6 6 1 4 1 2 7 9 4 3 3 3 4 6 10 11 13 10 10 9 9 9 10 8 7 7 9 6 7 10 14 16 18 18 18 17 19 21 23 24 23 22 20
5 6 5 6 8 7 4 7 2 2 0 1 6 6 6 5 9 8 13 13 9 10 12 13 14 14 10 7 2 9 13 16 18 20 19 17 20 21 22 21 20 21 21
8 6 5 3 7 4 2 2 4 4 3 2 5 7 7 2 6 10 8 24 9 11 15 17 13 18 10 13 9 7 11 16 18 20 19 18 19 21 22 19 17 18 20
2 7 8 6 8 7 4 5 7 9 9 8 7 7 9 2 6 11 10 3 15 18 14 18 17 27 6 3 5 6 9 12 17 19 19 17 20 21 21 17 14 15 16
11 10 8 8 10 10 8 7 7 9 10 9 9 5 8 7 4 6 9 12 17 19 14 17 20 13 6 6 7 10 11 13 17 19 20 18 19 21 21 16 13 14 14
9 8 7 6 10 9 8 7 9 10 9 9 5 6 9 9 9 6 9 11 16 19 16 17 17 11 4 7 7 6 10 12 17 19 20 19 18 20 19 15 12 12 14
12 12 10 10 10 7 8 8 9 11 11 10 7 8 11 12 12 10 10 10 13 12 16 19 18 12 10 8 10 13 14 15 18 17 19 18 16 18 20 16 12 11 13
14 14 15 13 10 10 9 10 10 12 12 11 12 12 12 12 15 13 11 11 12 11 10 12 16 19 19 17 13 14 16 18 20 17 16 18 19 18 18 16 10 9 11
15 16 15 12 15 16 14 12 14 14 14 13 13 12 13 14 14 14 15 15 13 12 12 10 12 14 15 14 14 14 16 17 18 19 17 16 17 16 16 14 10 9 11
17 20 23 20 18 18 17 16 18 18 16 15 15 14 15 15 15 14 15 16 16 16 14 13 13 16 16 15 15 14 14 15 18 19 19 17 12 12 15 16 11 13 13
22 24 21 22 24 20 23 23 21 22 20 18 18 18 17 17 16 16 17 17 17 18 18 17 16 17 17 18 17 16 15 15 18 18 19 19 15 10 11 12 14 14 16
24 25 21 23 24 26 26 24 23 24 23 21 22 22 22 20 20 20 19 19 19 19 20 21 21 21 21 20 19 20 19 18 19 22 17 19 17 16 13 14 16 16 14
16 15 19 20 26 26 29 29 28 28 28 28 26 25 26 22 25 24 23 23 22 22 23 21 22 24 24 22 20 21 20 20 19 23 21 21 21 21 20 19 20 20 17
12 17 12 20 22 27 30 31 32 33 33 32 32 30 28 29 28 30 28 27 27 26 25 25 25 26 25 26 24 22 22 21 22 24 25 22 23 23 22 21 22 21 21
24 19 18 16 12 15 22 34 39 38 36 36 33 32 31 33 34 34 33 32 31 31 31 29 29 29 29 31 29 28 28 25 25 28 29 24 25 25 26 26 24 25 24
24 25 24 22 23 21 20 23 22 22 34 39 36 39 39 35 37 40 39 35 34 33 34 34 34 32 32 33 35 34 30 31 32 29 33 30 31 30 25 27 29 30 30

GFSMA_500_spd_105.txt.gz
Wind_Speed
23 26 21 28 26 23 22 21 18 17 20 18 17 20 19 18 17 17 18 18 17 17 15 15 17 19 18 16 16 17 17 17 17 18 16 16 15 14 13 13 14 14 15
18 19 21 23 21 23 26 23 21 22 20 23 20 19 21 21 16 17 17 16 16 15 15 16 18 19 20 20 17 17 17 17 18 18 18 19 18 17 16 15 15 16 16
15 17 21 20 23 23 20 27 20 21 20 21 21 18 19 19 19 15 15 15 15 14 15 18 19 19 20 20 20 20 19 18 19 20 19 18 18 18 19 18 17 15 16
16 18 18 19 25 23 20 20 18 18 19 21 22 19 17 16 16 15 14 15 14 13 14 17 17 17 17 18 19 19 19 19 19 19 19 19 19 19 19 18 18 18 18
16 18 17 15 22 22 20 19 16 14 15 17 18 18 17 15 15 12 13 12 13 11 10 14 14 15 14 15 16 17 17 19 20 20 20 19 20 19 19 20 19 18 19
15 17 16 14 17 14 18 17 16 14 13 13 13 13 17 16 15 12 11 11 11 10 8 9 12 10 11 11 12 14 16 18 19 20 21 21 22 23 23 23 20 17 17
12 16 15 12 12 12 15 17 15 14 14 12 9 7 11 13 15 13 10 9 8 9 4 5 7 6 7 8 9 11 13 16 18 20 21 23 24 26 27 26 21 18 16
12 15 15 11 10 9 7 12 16 13 10 11 9 5 4 8 11 11 11 11 8 6 4 1 3 3 2 4 6 9 11 14 16 19 21 23 25 26 27 26 22 19 18
8 11 12 9 9 9 10 8 9 12 11 6 6 9 6 4 7 11 13 13 10 8 7 5 7 5 5 3 4 6 8 11 14 16 19 20 23 26 26 24 23 21 19
5 6 9 9 10 7 4 6 8 7 8 7 3 4 5 9 8 11 14 14 13 13 11 13 12 10 9 6 4 6 5 10 13 16 17 19 22 25 25 23 23 23 22
6 4 7 8 5 8 6 5 5 7 7 5 3 2 3 5 9 11 11 9 15 15 14 13 13 12 15 16 2 7 10 13 11 14 17 18 22 23 24 22 21 22 23
7 8 9 10 9 9 7 7 7 4 4 2 4 4 4 5 7 9 4 13 15 17 16 7 10 15 20 22 1 4 11 14 15 15 16 17 19 22 23 21 19 19 21
5 6 5 7 8 7 7 6 7 4 2 1 1 5 7 8 9 8 11 13 12 16 9 10 10 16 19 18 7 5 8 14 16 16 17 17 18 21 22 19 18 17 19
10 9 7 6 5 5 6 7 5 4 6 4 4 6 7 6 7 9 8 8 6 10 11 11 12 16 11 2 7 9 10 13 15 16 17 18 19 21 22 17 15 17 16
4 7 5 5 5 5 8 7 4 6 5 5 6 6 10 7 7 8 9 9 7 8 12 9 10 12 15 9 12 11 12 13 14 15 16 17 18 19 21 18 14 14 16
9 9 9 6 6 8 9 9 7 9 8 7 9 10 10 10 11 10 10 7 5 6 9 9 9 11 10 11 11 12 12 15 16 15 17 16 16 18 20 16 14 11 13
11 8 10 10 8 10 12 10 9 8 10 10 11 11 11 9 11 12 13 12 11 9 9 9 9 11 11 12 12 13 14 15 16 14 14 14 13 16 18 14 11 11 12
13 13 15 15 14 13 13 11 11 11 11 9 10 11 11 13 13 11 10 12 14 13 11 10 11 9 10 9 12 13 15 14 16 14 14 16 15 15 17 12 8 9 11
20 17 17 17 17 17 16 13 12 11 11 11 11 12 12 13 14 13 13 12 13 14 12 12 14 13 10 11 11 12 12 12 12 12 13 14 13 12 13 12 7 8 10
17 18 19 21 19 22 21 18 17 15 16 15 15 14 13 14 14 15 16 16 15 13 13 15 16 17 16 13 12 13 12 13 13 13 14 13 13 11 12 14 11 11 10
19 22 20 18 20 25 20 21 22 20 15 20 20 18 15 16 18 18 18 17 17 18 17 16 17 17 18 18 16 13 13 15 16 14 17 15 15 13 11 13 15 12 14
26 30 28 21 19 25 23 28 25 25 24 23 22 19 17 21 22 22 21 20 19 19 20 20 21 21 21 19 19 18 19 19 21 17 16 18 15 18 18 15 16 17 16
23 22 21 24 19 21 28 29 32 27 26 25 25 25 23 25 24 24 23 23 24 24 23 23 24 23 24 21 20 20 19 18 20 23 19 21 19 20 19 20 19 20 22
11 12 14 16 20 24 24 23 26 29 30 30 31 30 29 29 29 29 30 30 30 29 29 28 28 28 28 28 25 22 22 22 23 24 20 20 23 23 24 23 21 21 22
13 16 21 20 21 21 12 13 15 27 32 35 36 36 36 35 33 32 32 32 33 33 34 34 33 33 34 33 29 29 28 27 28 29 30 27 26 24 26 28 27 25 25
19 22 28 25 25 25 22 22 19 19 21 24 30 39 40 36 35 37 36 33 35 38 39 37 37 36 36 37 37 34 34 33 32 34 38 35 33 32 27 31 31 29 30

GFSMA_500_spd_108.txt.gz
Wind_Speed
15 12 20 20 23 25 24 24 24 22 18 18 21 19 17 14 16 16 16 15 14 16 17 17 20 19 17 16 17 17 16 17 16 15 15 15 16 16 14 13 14 16 17
20 28 23 23 23 23 25 23 25 23 20 19 19 19 19 17 14 15 14 13 14 16 16 18 19 21 20 18 17 16 16 16 16 16 17 17 17 17 17 17 17 16 16
17 17 17 19 21 23 20 20 20 19 20 21 19 17 17 18 17 14 13 11 13 14 16 17 19 19 18 17 17 16 16 16 16 17 18 19 19 20 19 19 17 17 17
20 18 17 19 24 17 20 18 18 15 17 18 19 17 14 15 16 12 11 11 11 11 14 14 15 15 14 14 14 15 16 17 18 19 19 19 20 21 20 19 15 14 15
19 18 18 18 21 21 21 19 16 13 15 16 15 15 14 12 13 11 10 8 9 10 9 12 11 11 11 10 11 12 14 15 17 18 20 21 22 23 24 19 15 13 13
17 16 15 15 16 18 19 15 13 14 15 13 13 11 10 12 12 10 9 8 5 8 6 6 7 6 6 7 9 12 13 14 15 17 19 22 24 26 26 21 17 15 14
15 17 16 14 14 16 16 14 13 14 13 11 10 11 11 8 9 11 10 8 4 3 2 2 3 2 5 8 9 11 15 18 17 16 17 20 24 25 26 22 20 18 17
12 12 11 11 13 12 12 14 13 11 11 10 7 9 6 7 9 10 9 9 9 9 7 4 6 7 8 10 12 14 16 19 21 20 17 17 22 25 24 22 22 22 21
8 7 8 8 9 8 9 9 9 11 10 9 9 7 7 4 7 13 14 8 6 9 8 8 9 14 11 10 10 11 12 15 17 19 19 17 21 23 22 22 22 22 24
6 4 5 7 7 8 9 8 8 7 8 8 5 7 8 7 8 13 11 11 10 10 10 9 10 14 19 14 14 11 9 13 15 17 17 17 20 20 21 21 20 21 22
7 7 7 8 6 7 7 8 9 9 8 8 7 7 7 7 7 12 12 12 14 13 12 12 12 18 21 24 18 13 6 8 13 15 15 15 17 20 20 19 19 19 21
9 7 6 5 6 7 6 6 6 7 7 6 7 4 4 5 8 8 7 10 13 15 14 15 15 20 23 20 7 3 6 7 13 16 16 15 16 20 19 17 17 17 18
8 10 11 10 10 9 7 6 4 5 7 7 6 6 5 6 6 8 13 9 10 13 14 13 13 15 17 12 2 2 7 10 13 17 18 16 15 18 17 16 14 15 15
8 11 10 10 10 11 10 9 9 10 8 8 7 5 3 4 4 8 8 9 11 9 10 11 12 11 10 9 6 9 10 13 14 16 17 15 13 15 15 13 13 13 15
7 10 10 11 11 12 9 8 9 11 8 8 10 11 6 5 6 6 7 8 9 10 12 14 14 11 10 10 11 11 11 13 14 16 18 14 12 14 14 11 10 10 12
10 10 11 12 12 13 12 11 11 11 10 10 10 12 10 9 7 8 7 6 7 9 11 13 14 14 11 11 12 14 13 15 15 14 15 13 13 14 15 11 10 8 10
14 12 13 15 13 13 12 12 12 13 12 12 12 10 10 11 11 10 9 8 8 9 11 12 11 11 11 10 13 14 15 17 17 16 14 10 13 15 14 10 10 10 12
15 16 15 16 14 14 14 13 12 14 13 13 13 12 11 12 14 12 12 12 9 9 9 12 11 10 11 12 13 14 16 18 18 17 15 13 11 14 15 12 8 8 9
18 19 19 19 18 19 18 17 16 15 17 15 15 15 13 13 13 13 14 14 14 11 11 13 12 10 11 13 13 15 15 17 15 16 16 16 13 11 10 11 8 7 8
18 20 20 20 21 22 21 21 21 21 21 20 20 18 17 15 15 15 15 15 14 14 14 15 14 14 13 14 14 16 16 17 17 16 16 15 16 14 11 10 11 11 11
20 19 19 21 22 22 27 24 25 29 25 22 17 16 19 19 16 19 17 17 16 16 16 17 17 18 17 17 17 17 19 20 18 18 21 18 17 16 16 15 15 13 13
24 23 25 24 27 25 25 26 28 26 26 26 24 18 24 26 23 23 21 21 19 21 20 20 21 22 20 20 20 20 21 22 25 17 23 19 18 17 17 17 17 18 18
26 26 29 32 33 35 32 30 31 27 33 32 31 30 30 30 26 25 25 25 22 21 22 25 26 25 24 21 20 21 22 24 25 25 22 23 21 21 21 21 20 20 21
21 24 25 24 23 25 27 27 27 29 31 32 34 31 31 30 31 30 29 29 28 29 30 31 31 29 29 27 26 26 27 28 27 26 24 25 26 25 27 28 26 24 24
18 17 17 16 19 17 19 22 26 23 26 27 32 34 34 33 34 34 37 35 33 33 33 33 33 33 33 30 31 31 29 29 33 34 28 29 27 26 30 32 33 32 30
22 22 22 22 25 27 26 25 25 23 24 23 26 33 34 31 35 39 40 39 36 36 36 37 37 36 37 38 39 37 35 36 38 39 35 34 33 32 33 36 39 37 38

GFSMA_500_spd_111.txt.gz
Wind_Speed
14 15 17 18 20 21 23 20 22 21 18 18 18 18 15 11 10 13 15 17 18 19 19 20 18 17 16 15 15 15 16 16 17 17 17 17 16 16 16 15 13 13 13
15 18 17 19 20 21 19 19 18 18 16 17 17 18 17 13 11 12 15 16 17 17 17 18 18 17 17 16 15 16 15 15 15 17 17 17 17 17 17 16 14 13 13
19 17 17 18 20 21 17 15 15 16 15 15 15 14 13 13 13 11 14 14 13 14 16 16 16 15 14 14 14 15 16 17 18 18 17 18 18 19 19 17 13 13 14
20 15 15 18 18 16 17 14 12 12 14 13 12 11 10 9 10 10 11 10 10 10 12 12 11 10 11 12 15 17 21 23 22 20 17 18 19 20 18 16 14 14 14
18 14 18 11 18 18 16 15 13 10 12 10 8 8 8 7 7 8 6 6 7 8 6 7 8 11 14 17 19 20 21 22 24 25 22 21 21 22 21 19 18 16 15
19 16 16 17 15 16 15 13 12 12 10 8 6 5 5 7 6 6 3 1 2 4 5 9 11 12 13 14 15 17 18 20 22 23 22 23 24 22 20 20 20 19 18
17 16 13 14 15 15 15 12 12 11 10 6 4 4 4 2 2 2 3 4 3 6 6 7 10 11 12 13 15 17 17 19 22 21 21 20 23 23 19 20 21 20 20
13 14 13 13 13 14 15 15 13 11 8 8 5 2 1 4 6 4 6 5 7 7 9 9 11 11 13 16 16 17 18 18 19 20 19 18 21 20 17 18 20 19 20
12 9 10 11 11 9 9 11 12 10 9 7 5 5 6 5 6 8 8 6 7 8 10 12 14 15 19 19 21 22 18 18 16 18 17 17 18 18 15 16 18 20 20
7 8 8 8 8 9 7 7 8 8 9 8 6 8 8 10 10 9 8 7 9 11 13 14 14 17 21 24 28 16 18 16 16 16 16 16 16 17 15 14 15 18 20
6 7 7 9 7 6 6 6 7 8 8 9 9 8 8 9 8 8 9 10 10 11 14 16 17 21 24 29 27 15 8 10 13 15 15 14 15 17 16 14 14 16 18
8 8 7 7 7 7 7 6 5 7 8 9 8 8 8 10 9 7 7 8 9 14 15 16 17 21 22 21 9 2 5 9 12 14 17 15 15 17 17 14 12 14 17
9 9 9 7 7 7 8 8 8 8 9 8 9 8 9 9 9 11 9 9 10 13 13 15 16 16 15 9 8 9 8 11 12 14 16 15 15 16 17 15 11 13 15
8 8 8 9 10 10 11 10 9 11 11 9 9 6 9 11 9 8 8 10 11 12 11 12 12 13 12 11 8 10 9 11 12 14 16 17 16 16 15 13 11 11 13
9 12 12 11 11 11 11 10 12 12 10 11 13 11 10 11 8 6 5 5 8 11 13 13 14 14 14 13 12 14 13 13 12 15 17 16 14 14 14 11 10 9 11
15 11 15 14 12 12 10 11 13 13 12 12 14 10 10 12 11 10 8 7 7 9 11 13 13 13 12 14 15 18 17 15 13 14 15 15 13 14 14 12 9 9 11
14 14 14 15 13 15 14 14 15 14 15 14 16 15 12 11 11 12 12 10 10 11 12 14 14 13 11 12 13 15 17 18 17 16 15 13 13 13 12 11 10 9 9
16 16 16 15 13 14 15 14 14 15 16 15 16 17 16 15 13 13 13 11 12 13 15 16 14 11 12 13 14 14 14 15 16 16 17 16 13 14 15 12 9 9 9
18 18 19 19 18 19 17 17 17 16 17 18 20 20 17 16 16 16 15 15 14 12 14 15 15 13 14 15 15 15 16 15 15 16 14 15 14 14 14 14 13 10 10
18 20 20 20 22 21 21 20 20 21 22 21 22 25 22 21 18 18 17 15 15 15 16 16 16 17 16 16 16 17 15 15 15 16 17 17 17 17 15 13 13 12 13
17 22 20 23 24 24 23 22 24 24 24 26 27 26 23 26 20 20 20 20 20 14 18 20 19 18 17 16 17 18 19 18 16 19 19 19 20 18 20 18 18 17 16
22 30 27 26 24 23 25 22 23 25 26 27 29 27 26 24 23 20 21 26 22 20 22 21 24 21 19 20 20 21 21 22 22 17 21 17 20 21 22 20 21 22 21
25 31 30 30 30 28 30 30 32 30 28 29 31 24 32 33 30 29 28 27 26 25 26 26 27 25 24 25 27 25 23 25 26 23 25 24 23 24 25 25 25 24 24
22 25 28 30 31 33 31 32 28 29 30 26 25 31 32 34 37 33 30 29 29 31 32 31 31 31 29 29 30 30 28 29 26 25 27 26 26 29 32 30 29 29 29
22 21 20 21 19 20 21 22 23 22 23 26 27 23 28 30 32 35 35 33 34 35 37 38 35 35 34 34 34 33 33 33 31 30 30 27 29 32 33 32 32 35 35
23 23 23 25 25 26 26 24 25 23 24 26 25 27 27 28 33 35 37 38 39 40 41 41 40 39 38 39 39 39 38 38 38 39 38 37 34 33 36 39 39 37 37

GFSMA_500_spd_114.txt.gz
Wind_Speed
16 15 17 18 19 20 19 18 18 17 14 14 14 14 14 12 12 13 15 17 17 17 19 20 19 19 19 19 19 21 22 23 21 20 20 20 19 19 19 16 12 11 10
16 17 19 19 19 20 14 15 15 15 14 13 11 10 12 11 11 13 14 15 14 16 18 19 18 18 20 20 22 23 24 22 23 23 23 23 22 21 20 17 14 12 12
19 15 19 19 19 16 17 16 15 13 13 11 8 7 7 9 10 11 12 12 11 14 15 16 17 17 16 16 17 18 21 22 24 25 23 23 23 22 20 18 16 15 14
19 17 18 19 19 18 16 14 13 10 11 10 6 6 7 6 7 7 10 10 9 12 13 15 16 15 14 16 17 17 19 21 22 23 22 23 23 21 20 18 17 16 15
16 19 21 16 16 18 17 15 12 9 10 7 4 4 5 4 4 5 8 9 12 11 12 12 11 12 14 16 17 18 19 20 21 23 23 23 23 21 20 19 19 18 18
18 19 13 17 17 16 15 13 12 12 8 5 4 2 1 2 3 3 6 7 7 8 7 9 12 14 16 19 21 21 21 22 22 22 21 22 22 21 19 19 20 21 21
19 18 17 17 17 18 16 14 13 12 8 5 4 2 1 3 4 6 7 7 6 7 10 11 12 14 18 21 22 24 24 23 22 21 19 20 22 20 17 18 19 20 22
16 16 15 15 13 11 12 14 14 9 5 4 4 2 2 4 5 8 8 7 8 8 10 12 15 18 19 23 26 29 28 23 20 18 18 18 20 19 17 17 18 18 19
14 14 13 12 12 11 11 10 11 10 9 6 5 5 4 4 5 6 9 9 9 10 13 14 15 18 22 23 25 28 22 17 17 16 17 17 17 18 16 16 17 18 19
14 11 11 12 10 10 9 10 9 8 8 8 9 7 6 5 7 8 9 9 11 11 14 15 16 18 21 26 28 24 9 11 12 14 15 15 15 16 15 15 15 16 18
12 12 12 11 12 11 9 7 7 7 8 9 9 7 7 5 6 8 10 11 11 14 15 16 19 19 20 21 20 16 9 11 12 13 13 14 14 15 16 13 13 14 15
10 11 11 10 7 8 10 9 8 8 8 7 7 9 11 8 6 7 8 12 11 13 14 16 18 19 19 17 13 12 10 12 12 13 15 15 14 16 17 14 11 13 14
11 10 11 10 10 10 9 9 10 9 8 7 9 10 12 12 8 9 9 12 11 12 12 13 16 14 13 12 11 13 12 12 13 15 16 16 14 15 16 12 9 12 15
10 11 12 12 13 13 13 11 10 9 7 7 8 9 10 14 13 12 9 9 10 10 11 12 12 13 13 14 14 15 13 13 14 15 16 15 13 14 15 11 9 9 12
9 9 10 11 10 11 12 11 11 12 12 11 11 11 12 14 14 13 10 9 10 10 11 10 11 12 12 12 12 15 15 12 12 13 14 11 12 11 12 9 8 8 10
12 10 8 11 12 11 10 11 11 11 10 9 9 10 9 13 14 13 13 13 12 14 14 13 11 11 12 12 13 14 13 13 10 8 10 11 11 11 11 9 8 7 8
13 11 11 10 12 12 11 14 13 12 11 11 11 10 10 12 14 14 16 15 15 16 17 16 14 12 12 12 13 13 14 13 12 12 11 10 9 8 7 7 6 7 8
16 15 15 13 13 14 15 14 12 13 12 12 13 14 12 13 14 15 16 17 18 17 17 17 16 14 15 15 15 14 14 15 13 13 12 12 10 9 9 8 5 6 7
20 18 17 17 18 17 16 17 16 16 15 13 12 13 14 15 17 18 16 17 18 18 17 18 18 16 15 16 16 16 17 17 16 17 14 14 13 13 12 10 10 11 10
22 20 19 19 20 20 20 21 22 22 20 19 17 18 18 19 22 20 19 20 18 17 19 18 18 17 17 16 17 17 17 20 21 22 20 20 19 16 14 13 12 12 12
23 20 19 20 20 22 22 23 22 21 22 23 22 21 22 24 24 20 19 19 22 20 16 16 18 19 18 18 17 17 19 20 20 21 20 21 22 20 20 18 17 17 16
25 24 22 23 22 23 19 21 22 22 24 23 23 24 23 23 23 25 23 21 21 20 23 20 18 19 18 18 19 19 20 23 24 23 23 23 25 23 22 22 20 20 20
31 28 27 28 29 32 29 26 28 26 28 27 27 26 25 24 29 27 29 35 30 27 26 27 26 24 23 25 27 28 27 25 25 28 28 27 29 27 24 25 26 25 24
29 29 29 31 32 34 32 32 31 30 33 30 26 25 28 24 29 24 28 31 35 32 30 31 31 31 31 31 32 33 33 32 29 29 30 31 33 35 31 30 29 29 29
29 31 32 35 30 33 29 26 25 23 19 29 28 31 32 30 25 28 31 28 33 34 34 36 35 35 37 37 35 36 35 35 34 32 32 33 35 38 40 37 37 36 36
27 24 24 24 25 25 25 23 23 24 24 26 26 24 25 24 28 30 29 29 29 31 35 36 37 36 35 35 36 38 40 41 41 41 37 35 34 37 42 44 44 42 41

GFSMA_500_spd_117.txt.gz
Wind_Speed
19 20 19 19 20 19 18 16 18 16 14 13 13 13 12 11 12 10 11 16 19 20 22 22 20 19 18 17 18 19 19 19 19 19 22 23 24 22 20 19 17 14 12
20 21 19 19 20 20 17 15 15 14 12 12 10 9 10 11 10 10 13 15 16 17 19 18 17 17 17 17 18 19 21 21 21 20 22 24 24 24 23 21 20 18 15
20 20 21 21 21 18 17 14 13 12 10 12 9 8 8 9 8 11 15 14 14 15 15 15 15 15 16 18 20 22 23 24 24 22 22 22 23 23 23 22 21 20 18
20 20 21 21 19 20 18 16 13 10 9 11 8 7 6 8 7 10 12 12 11 11 12 13 14 15 17 18 19 20 22 24 24 22 23 23 23 23 22 22 22 22 20
21 22 22 20 21 20 18 16 13 9 9 9 6 5 5 7 7 7 9 9 8 9 10 11 13 15 17 18 20 21 22 23 22 22 21 22 22 21 21 20 21 22 23
24 22 20 20 21 20 18 15 13 9 8 6 4 3 5 7 7 7 5 5 5 7 8 11 13 16 19 22 24 26 25 22 20 20 19 19 20 20 19 20 21 22 22
22 15 17 18 18 17 16 15 14 10 7 5 3 3 5 4 5 5 6 6 7 9 11 12 14 16 20 24 26 27 27 22 14 17 17 16 18 18 18 18 19 21 21
19 18 19 18 16 16 15 15 15 10 6 5 3 3 1 3 1 4 5 7 9 11 12 14 16 18 20 23 27 27 18 13 11 13 14 14 17 18 18 17 18 19 21
19 18 17 16 15 13 12 14 13 11 9 6 4 3 3 4 4 5 6 8 10 13 15 15 16 18 20 24 25 21 15 12 12 13 14 15 16 18 19 16 17 18 19
14 16 17 15 13 13 12 11 11 9 7 6 5 5 6 7 6 7 9 11 13 14 16 16 17 18 19 23 21 17 13 14 14 14 15 16 16 17 18 15 15 16 18
12 12 11 12 13 13 12 11 10 8 7 7 7 5 7 9 10 9 8 11 14 16 17 17 17 18 19 19 14 13 13 14 14 14 13 13 14 15 17 14 12 14 16
10 9 10 10 9 9 9 10 10 10 9 8 8 7 8 8 9 10 11 12 14 15 15 16 16 16 14 11 11 12 12 12 12 13 13 13 14 14 15 14 12 12 14
12 14 13 12 11 11 11 10 9 8 9 9 9 10 10 9 9 9 10 13 15 15 16 15 15 14 12 12 13 14 11 10 11 12 13 13 13 13 14 13 10 10 13
14 14 13 12 11 11 12 12 10 9 9 9 9 10 10 10 9 8 8 10 11 13 16 16 15 15 14 14 12 13 11 11 12 13 12 12 11 11 13 12 9 8 11
12 12 12 13 13 13 13 13 13 13 12 12 13 14 13 12 11 10 10 10 10 11 13 14 15 15 15 15 14 14 13 11 11 12 12 10 9 10 11 9 7 7 8
13 13 13 13 12 12 13 14 15 14 14 12 13 13 12 10 11 13 12 13 12 13 14 15 15 14 14 16 16 14 12 10 10 10 10 8 8 7 8 8 6 6 8
15 15 15 16 16 15 13 14 14 14 14 13 14 14 13 12 13 13 12 13 12 13 13 15 15 14 14 15 14 15 16 15 14 13 11 10 9 8 8 9 8 8 7
16 16 16 16 15 16 16 15 16 15 14 14 14 14 13 14 15 14 15 16 15 15 15 17 14 13 13 14 15 14 14 14 14 14 14 14 13 12 11 11 10 11 11
20 20 20 19 19 18 18 15 15 16 14 13 15 15 14 15 15 15 16 17 17 16 17 17 16 13 14 15 16 18 17 14 15 14 15 15 14 13 14 13 13 14 13
26 25 24 23 23 22 21 20 18 19 18 17 16 16 17 19 19 19 18 19 23 22 20 20 21 20 15 15 17 18 18 17 16 17 17 17 15 14 12 11 12 14 14
30 32 29 27 26 25 24 21 20 21 21 20 19 18 20 20 22 23 19 21 20 20 24 25 20 19 20 21 22 22 19 19 20 21 22 21 21 19 18 17 16 15 15
35 34 32 29 25 24 24 23 22 23 26 25 24 21 19 18 22 23 20 20 23 23 23 23 24 24 21 22 24 23 22 23 24 24 23 24 24 24 24 24 23 21 20
31 33 33 32 30 29 25 24 26 25 24 26 26 27 25 26 24 24 25 28 27 28 28 30 29 29 30 29 27 27 27 28 30 32 31 32 31 28 28 29 28 28 28
36 39 33 37 36 27 36 32 34 30 31 31 31 31 31 31 32 27 29 29 27 26 27 33 32 34 33 32 34 34 34 34 36 35 35 35 38 36 32 33 33 33 33
34 42 44 43 35 35 32 33 41 34 35 25 23 24 31 29 32 32 33 33 30 27 28 30 30 32 35 38 39 39 39 38 36 37 38 38 39 41 41 40 38 37 35
33 36 32 30 34 35 36 35 25 19 17 20 25 23 24 28 26 27 27 28 29 30 31 31 32 33 32 32 34 36 36 35 33 29 32 36 40 40 38 37 33 32 32

GFSMA_500_spd_120.txt.gz
Wind_Speed
20 22 19 21 21 19 17 18 18 16 15 14 15 15 13 15 17 16 17 19 18 17 17 16 17 17 19 20 21 22 22 21 20 21 23 22 21 21 20 19 18 17 16
21 20 21 23 22 19 16 17 17 15 13 14 14 12 12 16 16 16 16 16 15 13 13 14 15 16 17 19 20 22 23 22 21 20 20 20 21 21 20 19 19 19 18
22 22 22 23 22 19 15 15 16 14 12 14 14 12 11 13 13 13 13 11 10 10 11 12 14 16 18 19 19 19 20 20 20 18 18 19 19 19 19 19 19 19 20
22 22 23 23 21 18 16 14 16 13 11 12 14 12 10 11 11 9 8 8 8 9 10 11 13 15 16 18 18 19 19 18 16 16 16 17 19 18 18 19 19 20 21
22 22 23 19 20 17 16 15 17 12 10 10 12 11 10 9 8 6 5 5 6 7 9 11 13 15 18 20 23 25 23 16 9 13 15 17 19 19 18 19 20 21 21
23 22 22 21 21 18 17 15 16 13 10 10 10 10 10 8 6 5 5 5 5 7 8 11 13 16 20 25 25 22 19 10 9 12 15 16 18 20 19 17 19 21 21
23 20 19 19 19 18 16 14 15 13 10 8 7 8 7 5 3 3 3 5 7 10 11 14 16 19 22 23 25 19 17 13 11 13 14 15 16 19 18 16 17 20 22
17 19 19 18 17 15 15 15 15 13 10 8 5 5 3 2 0 2 4 6 10 11 13 15 18 19 21 23 21 19 16 14 13 14 13 14 15 17 16 15 17 19 21
19 18 18 18 17 15 13 13 13 12 8 7 6 3 2 4 4 5 7 9 12 14 15 16 17 19 18 18 14 14 13 13 13 14 14 14 15 16 16 14 16 18 20
17 18 18 16 14 14 13 12 10 8 7 5 3 2 4 4 6 7 9 9 11 12 14 15 14 15 14 14 13 13 13 13 13 14 14 14 15 16 15 13 14 16 19
16 14 14 14 14 13 13 13 11 10 8 5 4 4 4 4 6 8 10 11 13 14 14 14 13 13 13 10 11 13 14 13 13 14 14 14 14 15 15 12 14 16 18
15 14 14 13 13 13 12 12 12 10 8 6 6 7 7 7 9 10 12 13 15 14 13 13 13 13 12 12 13 12 11 10 11 13 13 12 13 14 15 14 13 13 16
13 14 13 13 13 12 12 11 10 9 9 9 9 9 9 9 9 10 11 13 14 14 13 12 13 13 13 12 12 12 11 10 10 12 10 11 11 13 13 12 12 12 14
12 13 13 12 12 12 12 12 12 11 10 10 10 10 11 10 10 9 9 11 11 12 12 11 10 11 11 12 12 12 11 11 11 12 12 11 11 12 13 11 11 12 13
14 15 15 14 14 14 14 14 14 13 13 14 13 13 13 13 12 12 11 12 12 13 14 11 12 9 9 10 10 10 9 9 10 11 10 10 11 11 11 10 10 11 12
14 15 15 16 17 17 18 18 18 17 16 16 17 15 14 13 13 13 14 14 14 14 14 14 12 10 9 10 10 9 7 6 7 9 10 11 10 10 10 11 11 11 11
14 14 15 15 16 18 17 16 15 15 15 15 14 14 15 15 16 15 16 16 16 16 15 17 16 15 13 13 13 14 12 9 7 6 6 5 6 7 7 8 9 10 11
18 19 20 19 19 20 19 20 18 16 16 16 16 16 15 15 16 16 17 17 17 17 18 18 18 17 17 17 15 15 15 13 11 10 9 7 8 8 8 10 11 11 10
21 20 21 21 19 20 19 20 20 19 21 19 18 17 16 17 16 16 16 17 18 17 17 19 19 19 18 19 19 18 18 17 17 15 12 13 13 11 10 10 12 12 12
23 23 24 23 24 23 23 23 23 22 23 23 21 21 19 20 21 20 21 20 19 18 21 22 22 22 22 23 22 21 21 21 22 21 19 16 16 15 16 16 15 15 15
26 26 27 29 29 28 26 27 24 24 25 26 25 24 24 24 23 21 21 21 19 18 20 20 21 22 22 21 25 25 23 21 20 23 23 21 22 23 22 20 20 21 21
24 24 32 34 34 34 32 29 27 27 26 26 25 25 27 26 23 23 21 23 23 21 22 23 24 25 24 25 24 26 28 28 27 27 29 29 27 29 31 29 27 26 25
30 33 36 34 38 38 36 32 29 30 28 28 26 24 27 27 29 29 29 28 27 26 26 27 26 28 30 30 31 31 32 32 32 34 34 34 35 33 34 32 34 31 29
34 27 30 28 37 36 38 37 35 33 32 31 32 34 33 32 34 33 34 33 31 29 29 28 28 27 28 31 32 34 33 34 36 37 39 38 38 38 33 37 34 35 34
29 36 37 32 34 41 41 43 41 42 43 39 39 37 37 35 34 37 37 33 30 30 30 30 30 30 28 28 28 30 32 36 38 36 39 37 36 36 34 30 37 37 36
35 33 36 40 42 43 45 42 46 47 39 49 50 39 33 34 26 30 30 31 30 30 29 30 32 33 33 34 35 34 34 35 36 34 37 37 36 37 36 36 35 33 33

GFSMA_500_spd_123.txt.gz
Wind_Speed
21 20 22 22 18 17 17 17 17 17 17 17 18 17 18 20 18 17 16 16 16 15 15 15 16 17 17 17 18 19 19 18 18 17 18 19 19 18 18 19 19 19 18
22 19 22 22 18 17 17 16 18 16 17 17 16 16 17 18 16 14 13 12 12 12 13 14 14 14 15 15 16 17 16 16 16 15 17 18 18 18 18 18 17 18 19
22 20 22 21 19 18 17 16 17 17 17 16 14 15 14 14 12 10 9 9 10 10 10 10 11 14 15 16 18 19 17 13 12 14 16 18 19 18 18 19 18 18 19
22 22 23 22 19 18 17 15 16 15 16 15 13 12 12 10 9 7 6 7 7 8 9 10 12 14 18 20 21 20 16 11 13 14 16 18 19 18 18 19 20 20 19
20 21 22 20 17 16 16 15 15 14 14 13 13 10 10 7 5 4 4 6 7 9 10 12 14 17 19 20 22 21 16 12 13 13 15 17 18 18 17 18 20 22 21
22 22 22 20 17 15 15 15 13 12 11 12 12 10 8 6 3 2 3 4 5 7 9 12 16 17 20 22 22 18 16 14 12 13 15 17 19 19 17 16 18 21 23
24 23 20 20 18 17 9 14 12 10 10 9 8 7 6 4 2 2 3 5 7 9 11 13 16 18 19 21 16 14 13 13 13 15 15 17 19 19 18 15 17 20 22
22 22 20 19 17 16 17 15 11 8 8 7 5 4 1 1 5 7 6 8 11 12 11 11 15 17 17 12 10 11 12 12 14 14 15 17 18 19 18 14 16 19 21
21 19 19 17 16 15 14 14 16 13 5 5 6 5 5 11 5 7 3 6 6 13 15 13 13 14 11 7 8 11 11 11 12 13 14 16 17 18 17 13 15 19 21
17 17 17 16 15 14 14 14 13 12 11 7 6 5 6 6 6 18 9 10 12 13 16 13 10 9 7 5 7 9 9 10 12 13 14 16 16 17 15 13 14 17 20
17 17 17 16 14 13 12 12 11 9 8 8 7 13 5 5 6 8 15 19 6 15 11 10 10 9 5 5 7 8 9 10 12 14 15 16 16 17 13 11 12 15 17
16 16 15 14 14 13 11 11 10 9 10 10 8 8 8 9 10 10 10 11 6 10 11 9 6 8 10 9 10 9 9 9 11 12 13 13 15 15 13 11 12 15 17
16 16 15 15 14 13 12 12 11 12 10 10 9 8 10 10 11 11 10 10 9 7 5 15 14 9 11 11 12 12 10 9 10 11 11 12 12 13 12 10 12 13 15
13 13 13 13 12 12 12 12 12 13 13 12 11 10 12 12 14 14 13 12 12 11 9 6 12 12 12 10 11 10 10 11 9 10 11 11 9 10 10 8 9 11 13
14 13 13 13 13 13 14 14 14 14 14 13 13 14 14 16 16 15 14 13 12 13 14 9 12 10 14 13 11 10 9 10 11 10 9 10 11 10 9 9 9 9 9
17 17 16 16 15 15 15 17 17 16 17 18 18 16 16 15 15 15 15 13 13 13 12 12 11 11 12 13 11 12 12 11 11 11 10 9 9 9 10 10 10 11 10
17 16 16 17 18 18 18 19 19 19 19 18 16 16 16 15 15 15 14 14 14 14 13 14 12 10 14 15 14 12 12 9 10 9 10 11 11 12 13 13 13 13 13
18 17 18 19 19 17 18 19 19 18 18 17 17 18 18 17 18 17 17 16 15 15 15 16 17 15 15 13 18 17 16 15 11 13 12 12 13 14 15 15 15 15 15
21 20 21 22 22 22 22 22 22 21 21 21 21 22 22 21 21 20 20 19 18 18 17 16 19 17 20 18 18 19 19 20 16 16 17 15 16 17 17 16 16 15 16
23 23 23 24 24 24 25 24 24 24 25 24 23 22 24 23 23 22 24 23 22 23 23 17 22 19 14 16 17 19 16 20 18 15 17 18 19 18 20 20 20 20 19
26 26 26 25 27 26 26 28 30 28 28 28 28 26 26 28 28 27 27 25 25 25 23 19 23 23 20 19 20 22 24 24 22 22 21 21 22 26 24 25 25 25 25
28 28 29 29 28 28 28 31 33 33 32 31 31 32 30 29 29 28 28 26 26 24 26 25 27 24 23 26 28 28 28 30 28 30 31 26 26 29 30 28 31 32 31
29 29 26 27 29 31 35 36 35 36 35 34 34 35 35 30 32 32 31 30 30 31 31 31 30 31 29 27 27 29 32 32 34 34 37 36 31 27 32 31 32 34 34
35 30 32 31 34 33 30 30 39 39 39 37 36 37 36 34 33 35 35 35 36 38 37 35 34 32 32 31 31 32 31 32 32 31 33 35 38 36 34 34 37 31 32
37 38 35 36 34 38 41 37 32 39 40 41 43 43 42 40 40 42 38 40 37 34 36 37 34 33 32 32 31 33 32 33 33 33 34 35 32 38 32 30 36 35 33
37 42 42 37 42 38 40 38 38 35 42 45 49 48 47 49 45 35 37 41 42 37 31 31 31 29 30 32 34 34 34 34 35 32 35 39 38 39 41 32 32 38 37